FW0644 Weather Reports


Display with metric or nautical units.
time (UTC)temp
F
wind
direction
speed
MPH
gust
MPH
rain 1hr
in
rain 24hr
in
rain mn
in
humidity
%
barometer
mb
20191210023705 31 206 2.0 6.0 0.00 0.00 0.00 98 1021.9
20191210023606 31 206 2.0 6.0 0.00 0.00 0.00 98 1021.9
20191210023505 31 202 3.0 6.0 0.00 0.00 0.00 98 1021.9
20191210023405 31 203 3.0 6.0 0.00 0.00 0.00 98 1021.9
20191210023305 31 203 3.0 6.0 0.00 0.00 0.00 98 1021.9
20191210023205 31 201 4.0 6.0 0.00 0.00 0.00 98 1021.9
20191210023106 31 199 4.0 7.0 0.00 0.00 0.00 98 1021.9
20191210023006 31 198 4.0 7.0 0.00 0.00 0.00 98 1021.9
20191210022905 31 189 3.0 7.0 0.00 0.00 0.00 98 1021.9
20191210022805 31 185 2.0 7.0 0.00 0.00 0.00 98 1021.9
20191210022706 31 186 2.0 7.0 0.00 0.00 0.00 98 1021.9
20191210022606 31 186 3.0 7.0 0.00 0.00 0.00 98 1021.9
20191210022506 31 193 3.0 7.0 0.00 0.00 0.00 98 1021.9
20191210022406 31 193 3.0 7.0 0.00 0.00 0.00 98 1021.9
20191210022305 31 194 4.0 7.0 0.00 0.00 0.00 98 1021.9
20191210022205 31 198 2.0 7.0 0.00 0.00 0.00 98 1021.9
20191210022105 31 199 4.0 7.0 0.00 0.00 0.00 98 1021.9
20191210022007 31 199 4.0 7.0 0.00 0.00 0.00 98 1021.9
20191210021905 31 205 2.0 7.0 0.00 0.00 0.00 98 1021.9
20191210021806 31 205 4.0 7.0 0.00 0.00 0.00 98 1021.9
20191210021705 31 204 3.0 7.0 0.00 0.00 0.00 98 1021.9
20191210021605 31 206 5.0 7.0 0.00 0.00 0.00 98 1021.9
20191210021506 31 207 3.0 7.0 0.00 0.00 0.00 98 1021.9
20191210021405 31 212 4.0 7.0 0.00 0.00 0.00 98 1021.9
20191210021305 31 209 4.0 7.0 0.00 0.00 0.00 98 1021.9
20191210021206 31 207 4.0 7.0 0.00 0.00 0.00 98 1021.9
20191210021105 32 207 3.0 6.0 0.00 0.00 0.00 98 1021.9
20191210021005 32 208 3.0 6.0 0.00 0.00 0.00 98 1021.9
20191210020905 32 204 2.0 6.0 0.00 0.00 0.00 98 1021.9
20191210020806 31 205 3.0 6.0 0.00 0.00 0.00 98 1021.9
20191210020706 32 208 3.0 6.0 0.00 0.00 0.00 98 1021.9
20191210020605 32 206 3.0 6.0 0.00 0.00 0.00 98 1021.9
20191210020505 32 202 2.0 6.0 0.00 0.00 0.00 98 1021.9
20191210020405 32 198 5.0 6.0 0.00 0.00 0.00 98 1021.9
20191210020305 32 197 3.0 5.0 0.00 0.00 0.00 98 1021.9
20191210020205 32 203 2.0 4.0 0.00 0.00 0.00 98 1021.9
20191210020106 31 199 2.0 8.0 0.00 0.00 0.00 98 1021.9
20191210020005 32 185 1.0 8.0 0.00 0.00 0.00 98 1021.9
20191210015905 32 183 1.0 8.0 0.00 0.00 0.00 98 1021.9
20191210015805 32 182 1.0 8.0 0.00 0.00 0.00 98 1021.9
20191210015705 32 181 1.0 8.0 0.00 0.00 0.00 98 1021.9
20191210015605 32 179 3.0 8.0 0.00 0.00 0.00 98 1021.9
20191210015506 32 180 2.0 8.0 0.00 0.00 0.00 98 1021.9
20191210015405 32 181 2.0 8.0 0.00 0.00 0.00 98 1021.9
20191210015305 32 182 3.0 8.0 0.00 0.00 0.00 98 1021.9
20191210015205 32 183 6.0 8.0 0.00 0.00 0.00 98 1021.9
20191210015105 32 185 4.0 8.0 0.00 0.00 0.00 98 1021.9
20191210015005 32 191 6.0 7.0 0.00 0.00 0.00 98 1021.9
20191210014906 32 192 3.0 7.0 0.00 0.00 0.00 98 1021.9
20191210014805 32 193 2.0 5.0 0.00 0.00 0.00 98 1021.9
20191210014705 32 194 2.0 5.0 0.00 0.00 0.00 98 1021.9
20191210014605 32 198 2.0 5.0 0.00 0.00 0.00 98 1021.9
20191210014505 32 195 2.0 5.0 0.00 0.00 0.00 98 1021.9
20191210014405 32 195 4.0 5.0 0.00 0.00 0.00 98 1021.9
20191210014306 32 191 1.0 4.0 0.00 0.00 0.00 98 1021.9
20191210014205 32 185 2.0 4.0 0.00 0.00 0.00 98 1021.9
20191210014105 32 190 3.0 5.0 0.00 0.00 0.00 98 1021.9
20191210014005 32 189 2.0 6.0 0.00 0.00 0.00 98 1021.9
20191210013905 32 192 0.0 6.0 0.00 0.00 0.00 98 1021.9
20191210013805 32 192 1.0 6.0 0.00 0.00 0.00 98 1021.9
20191210013706 32 190 1.0 6.0 0.00 0.00 0.00 98 1021.9
20191210013605 32 189 2.0 6.0 0.00 0.00 0.00 98 1021.9
20191210013505 32 189 1.0 6.0 0.00 0.00 0.00 98 1021.9
20191210013405 32 187 2.0 6.0 0.00 0.00 0.00 98 1021.9
20191210013305 32 187 2.0 6.0 0.00 0.00 0.00 98 1021.9
20191210013206 32 192 4.0 6.0 0.00 0.00 0.00 98 1021.9
20191210013105 32 191 2.0 6.0 0.00 0.00 0.00 98 1021.9
20191210013005 32 197 2.0 4.0 0.00 0.00 0.00 98 1021.9
20191210012905 32 199 2.0 4.0 0.00 0.00 0.00 98 1021.9
20191210012805 32 202 2.0 4.0 0.00 0.00 0.00 98 1021.9
20191210012705 32 205 2.0 4.0 0.00 0.00 0.00 98 1021.9
20191210012606 32 207 2.0 4.0 0.00 0.00 0.00 98 1021.9
20191210012505 32 210 3.0 4.0 0.00 0.00 0.00 98 1021.9
20191210012405 32 214 2.0 4.0 0.00 0.00 0.00 98 1021.9
20191210012305 32 216 3.0 4.0 0.00 0.00 0.00 98 1021.9
20191210012205 32 215 3.0 4.0 0.00 0.00 0.00 98 1021.9
20191210012107 32 210 2.0 4.0 0.00 0.00 0.00 98 1021.9
20191210012006 32 209 2.0 4.0 0.00 0.00 0.00 98 1021.9
20191210011905 32 208 2.0 4.0 0.00 0.00 0.00 98 1021.9
20191210011805 32 208 1.0 4.0 0.00 0.00 0.00 98 1021.9
20191210011705 32 209 1.0 4.0 0.00 0.00 0.00 98 1021.9
20191210011605 32 214 3.0 4.0 0.00 0.00 0.00 98 1021.9
20191210011507 32 214 2.0 4.0 0.00 0.00 0.00 98 1021.9
20191210011406 32 209 2.0 4.0 0.00 0.00 0.00 98 1021.9
20191210011305 32 210 2.0 4.0 0.00 0.00 0.00 98 1021.9
20191210011205 32 208 2.0 6.0 0.00 0.00 0.00 98 1021.9
20191210011105 32 211 3.0 6.0 0.00 0.00 0.00 98 1021.9
20191210011007 32 210 1.0 6.0 0.00 0.00 0.00 98 1021.9
20191210010906 32 210 1.0 6.0 0.00 0.00 0.00 98 1021.9
20191210010806 32 212 3.0 6.0 0.00 0.00 0.00 98 1021.9
20191210010705 32 213 2.0 6.0 0.00 0.00 0.00 98 1021.9
20191210010605 32 213 3.0 6.0 0.00 0.00 0.00 98 1021.9
20191210010507 32 208 1.0 6.0 0.00 0.00 0.00 98 1021.9
20191210010405 32 208 3.0 6.0 0.00 0.00 0.00 98 1021.9
20191210010305 32 209 2.0 6.0 0.00 0.00 0.00 98 1021.9
20191210010206 32 214 1.0 4.0 0.00 0.00 0.00 98 1021.9
20191210010105 32 215 2.0 4.0 0.00 0.00 0.00 98 1021.9
20191210010006 32 214 2.0 4.0 0.00 0.00 0.00 98 1021.9
20191210005905 32 213 1.0 4.0 0.00 0.00 0.00 98 1021.9
20191210005805 32 211 3.0 4.0 0.00 0.00 0.00 98 1021.9
20191210005705 32 205 2.0 4.0 0.00 0.00 0.00 98 1021.9
20191210005605 32 199 3.0 4.0 0.00 0.00 0.00 98 1021.9
20191210005505 32 200 1.0 4.0 0.00 0.00 0.00 98 1021.9
20191210005405 32 202 2.0 4.0 0.00 0.00 0.00 98 1021.9
20191210005305 32 202 2.0 4.0 0.00 0.00 0.00 98 1021.9
20191210005205 32 201 2.0 4.0 0.00 0.00 0.00 98 1021.9
20191210005106 32 205 4.0 4.0 0.00 0.00 0.00 98 1021.9
20191210005006 32 218 3.0 4.0 0.00 0.00 0.00 98 1021.9
20191210004905 32 222 1.0 4.0 0.00 0.00 0.00 98 1021.9
20191210004805 32 224 2.0 4.0 0.00 0.00 0.00 98 1021.9
20191210004705 32 232 3.0 4.0 0.00 0.00 0.00 98 1021.9
20191210004605 32 238 2.0 4.0 0.00 0.00 0.00 98 1021.9
20191210004506 32 243 1.0 4.0 0.00 0.00 0.00 98 1021.9
20191210004405 32 249 1.0 5.0 0.00 0.00 0.00 98 1021.9
20191210004305 32 251 2.0 6.0 0.00 0.00 0.00 98 1021.9
20191210004205 32 254 3.0 6.0 0.00 0.00 0.00 98 1021.9
20191210004105 32 253 3.0 6.0 0.00 0.00 0.00 98 1021.9
20191210004006 32 248 2.0 6.0 0.00 0.00 0.00 98 1021.9
20191210003906 32 245 3.0 6.0 0.00 0.00 0.00 98 1021.9
20191210003805 32 246 3.0 6.0 0.00 0.00 0.00 98 1021.9
20191210003705 32 243 3.0 6.0 0.00 0.00 0.00 98 1021.9
20191210003606 32 238 3.0 6.0 0.00 0.00 0.00 98 1021.9
20191210003507 32 235 4.0 6.0 0.00 0.00 0.00 98 1021.9
20191210003406 32 228 1.0 6.0 0.00 0.00 0.00 98 1021.9
20191210003306 32 224 1.0 3.0 0.00 0.00 0.00 98 1021.9
20191210003205 32 221 1.0 3.0 0.00 0.00 0.00 98 1021.9
20191210003106 32 219 1.0 3.0 0.00 0.00 0.00 98 1021.9
20191210003006 32 220 2.0 3.0 0.00 0.00 0.00 98 1021.9
20191210002905 32 215 2.0 4.0 0.00 0.00 0.00 98 1021.9
20191210002806 32 211 2.0 4.0 0.00 0.00 0.00 98 1021.9
20191210002706 32 206 2.0 4.0 0.00 0.00 0.00 98 1021.9
20191210002605 32 204 1.0 4.0 0.00 0.00 0.00 98 1021.9
20191210002505 32 203 1.0 4.0 0.00 0.00 0.00 98 1021.9
20191210002405 32 200 1.0 4.0 0.00 0.00 0.00 98 1021.9
20191210002305 32 189 1.0 6.0 0.00 0.00 0.00 98 1021.9
20191210002206 32 188 2.0 6.0 0.00 0.00 0.00 98 1021.9
20191210002106 32 185 2.0 6.0 0.00 0.00 0.00 98 1021.9
20191210002005 32 182 2.0 6.0 0.00 0.00 0.00 98 1021.9
20191210001905 32 182 2.0 6.0 0.00 0.00 0.00 98 1021.9
20191210001805 32 184 2.0 6.0 0.00 0.00 0.00 98 1021.9
20191210001705 32 186 2.0 6.0 0.00 0.00 0.00 98 1021.9
20191210001605 32 189 3.0 6.0 0.00 0.00 0.00 98 1021.9
20191210001505 32 192 3.0 6.0 0.00 0.00 0.00 98 1021.9
20191210001405 32 196 5.0 6.0 0.00 0.00 0.00 98 1021.9
20191210001305 32 201 3.0 6.0 0.00 0.00 0.00 98 1021.9
20191210001205 32 208 2.0 3.0 0.00 0.00 0.00 98 1021.9
20191210001105 32 214 1.0 3.0 0.00 0.00 0.00 98 1021.9
20191210001007 32 218 2.0 3.0 0.00 0.00 0.00 98 1021.9
20191210000905 32 218 2.0 3.0 0.00 0.00 0.00 98 1021.9
20191210000805 32 218 1.0 3.0 0.00 0.00 0.00 98 1021.9
20191210000705 32 215 2.0 3.0 0.00 0.00 0.00 98 1021.9
20191210000605 32 212 2.0 3.0 0.00 0.00 0.00 98 1021.9
20191210000507 32 213 2.0 4.0 0.00 0.00 0.00 98 1021.9
20191210000406 32 203 1.0 6.0 0.00 0.00 0.00 98 1021.9
20191210000305 32 200 1.0 6.0 0.00 0.00 0.00 98 1021.9
20191210000205 32 197 2.0 6.0 0.00 0.00 0.00 98 1021.9
20191210000105 32 191 1.0 6.0 0.00 0.00 0.00 98 1021.9
20191210000007 32 188 1.0 6.0 0.00 0.00 0.00 98 1021.9
20191209235905 32 185 1.0 6.0 0.00 0.00 0.00 98 1021.9
20191209235806 32 182 1.0 6.0 0.00 0.00 0.00 98 1021.9
20191209235705 32 182 1.0 6.0 0.00 0.00 0.00 98 1021.9
20191209235605 32 182 3.0 6.0 0.00 0.00 0.00 98 1021.9
20191209235506 32 179 4.0 6.0 0.00 0.00 0.00 98 1021.9
20191209235405 32 187 2.0 5.0 0.00 0.00 0.00 98 1021.9
20191209235305 32 188 2.0 5.0 0.00 0.00 0.00 98 1021.9
20191209235206 32 190 2.0 5.0 0.00 0.00 0.00 98 1021.9
20191209235105 32 192 2.0 5.0 0.00 0.00 0.00 98 1021.9
20191209235005 32 194 3.0 5.0 0.00 0.00 0.00 98 1021.9
20191209234905 32 194 2.0 5.0 0.00 0.00 0.00 98 1021.9
20191209234805 32 195 1.0 5.0 0.00 0.00 0.00 98 1021.9
20191209234706 32 194 1.0 5.0 0.00 0.00 0.00 98 1021.9
20191209234606 32 196 1.0 5.0 0.00 0.00 0.00 98 1021.9
20191209234505 32 195 2.0 5.0 0.00 0.00 0.00 98 1021.9
20191209234405 32 194 2.0 5.0 0.00 0.00 0.00 98 1021.9
20191209234305 32 192 3.0 5.0 0.00 0.00 0.00 98 1021.9
20191209234205 32 190 3.0 5.0 0.00 0.00 0.00 98 1021.9
20191209234106 32 191 2.0 4.0 0.00 0.00 0.00 98 1021.9
20191209234005 32 192 3.0 4.0 0.00 0.00 0.00 98 1021.9
20191209233905 32 193 1.0 4.0 0.00 0.00 0.00 98 1021.9
20191209233805 32 197 2.0 4.0 0.00 0.00 0.00 98 1021.9
20191209233705 32 199 2.0 4.0 0.00 0.00 0.00 98 1021.9
20191209233605 32 198 3.0 4.0 0.00 0.00 0.00 98 1021.9
20191209233505 32 196 2.0 4.0 0.00 0.00 0.00 98 1021.9
20191209233405 32 193 2.0 4.0 0.00 0.00 0.00 98 1021.9
20191209233305 32 194 3.0 4.0 0.00 0.00 0.00 98 1021.9
20191209233209 32 194 2.0 4.0 0.00 0.00 0.00 98 1021.9
20191209233105 32 196 2.0 4.0 0.00 0.00 0.00 98 1021.9
20191209233007 32 193 2.0 4.0 0.00 0.00 0.00 98 1021.9
20191209232905 32 195 1.0 4.0 0.00 0.00 0.00 98 1021.9
20191209232805 32 193 2.0 4.0 0.00 0.00 0.00 98 1021.9
20191209232705 32 192 2.0 4.0 0.00 0.00 0.00 98 1021.9
20191209232605 32 192 1.0 4.0 0.00 0.00 0.00 98 1021.9
20191209232505 32 195 1.0 4.0 0.00 0.00 0.00 98 1021.9
20191209232405 32 195 1.0 4.0 0.00 0.00 0.00 98 1021.9
20191209232306 32 200 2.0 4.0 0.00 0.00 0.00 98 1021.9
20191209232205 32 203 2.0 4.0 0.00 0.00 0.00 98 1021.9
20191209232105 32 204 2.0 4.0 0.00 0.00 0.00 98 1021.9
20191209232006 32 204 3.0 4.0 0.00 0.00 0.00 98 1021.9
20191209231905 32 205 2.0 8.0 0.00 0.00 0.00 98 1021.9
20191209231805 32 202 2.0 8.0 0.00 0.00 0.00 98 1021.9
20191209231706 32 202 2.0 8.0 0.00 0.00 0.00 98 1021.9
20191209231605 32 200 3.0 8.0 0.00 0.00 0.00 98 1021.9
20191209231505 32 196 3.0 8.0 0.00 0.00 0.00 98 1021.9
20191209231405 32 196 2.0 8.0 0.00 0.00 0.00 98 1021.9
20191209231305 32 193 2.0 8.0 0.00 0.00 0.00 98 1021.9
20191209231205 32 192 2.0 8.0 0.00 0.00 0.00 98 1021.9
20191209231106 32 190 3.0 8.0 0.00 0.00 0.00 98 1021.9
20191209231006 32 192 6.0 8.0 0.00 0.00 0.00 98 1021.9
20191209230905 32 189 2.0 7.0 0.00 0.00 0.00 98 1021.9
20191209230805 32 191 2.0 4.0 0.00 0.00 0.00 98 1021.9
20191209230705 32 192 2.0 4.0 0.00 0.00 0.00 98 1021.9
20191209230605 32 192 3.0 4.0 0.00 0.00 0.00 98 1021.9
20191209230505 33 199 2.0 4.0 0.00 0.00 0.00 98 1021.9
20191209230405 33 201 2.0 4.0 0.00 0.00 0.00 98 1021.9
20191209230305 33 201 2.0 4.0 0.00 0.00 0.00 98 1021.9
20191209230205 33 204 2.0 4.0 0.00 0.00 0.00 98 1021.9
20191209230105 33 209 1.0 4.0 0.00 0.00 0.00 98 1021.9
20191209230007 33 212 1.0 4.0 0.00 0.00 0.00 98 1021.9
20191209225905 33 213 0.0 4.0 0.00 0.00 0.00 98 1021.9
20191209225805 33 215 1.0 4.0 0.00 0.00 0.00 98 1021.9
20191209225705 33 214 1.0 4.0 0.00 0.00 0.00 98 1021.9
20191209225605 32 217 1.0 4.0 0.00 0.00 0.00 98 1021.9
20191209225505 32 217 2.0 5.0 0.00 0.00 0.00 98 1021.9
20191209225405 32 218 4.0 5.0 0.00 0.00 0.00 98 1021.9
20191209225305 33 219 2.0 5.0 0.00 0.00 0.00 98 1021.9
20191209225205 33 215 1.0 5.0 0.00 0.00 0.00 98 1021.9
20191209225105 32 214 2.0 5.0 0.00 0.00 0.00 98 1021.9
20191209225005 32 213 2.0 5.0 0.00 0.00 0.00 98 1021.9
20191209224905 32 214 3.0 5.0 0.00 0.00 0.00 98 1021.9
20191209224805 32 213 3.0 5.0 0.00 0.00 0.00 98 1021.9
20191209224705 32 214 3.0 5.0 0.00 0.00 0.00 98 1021.9
20191209224605 32 213 4.0 5.0 0.00 0.00 0.00 98 1021.9
20191209224506 32 212 3.0 5.0 0.00 0.00 0.00 98 1021.9
20191209224405 32 205 2.0 5.0 0.00 0.00 0.00 98 1021.9
20191209224305 32 204 4.0 5.0 0.00 0.00 0.00 98 1021.9
20191209224206 33 205 3.0 5.0 0.00 0.00 0.00 98 1021.9
20191209224105 33 204 4.0 5.0 0.00 0.00 0.00 98 1021.9
20191209224006 33 205 4.0 5.0 0.00 0.00 0.00 98 1021.9
20191209223905 33 201 2.0 4.0 0.00 0.00 0.00 98 1021.9
20191209223805 33 201 3.0 4.0 0.00 0.00 0.00 98 1021.9
20191209223706 33 197 2.0 7.0 0.00 0.00 0.00 98 1021.9
20191209223605 33 194 2.0 7.0 0.00 0.00 0.00 98 1021.9
20191209223505 33 193 2.0 7.0 0.00 0.00 0.00 98 1021.9
20191209223405 33 194 2.0 7.0 0.00 0.00 0.00 98 1021.9
20191209223305 33 197 3.0 7.0 0.00 0.00 0.00 98 1021.9
20191209223205 33 199 2.0 7.0 0.00 0.00 0.00 98 1021.9
20191209223105 33 200 2.0 7.0 0.00 0.00 0.00 98 1021.9
20191209223006 33 203 3.0 7.0 0.00 0.00 0.00 98 1021.9
20191209222905 33 204 3.0 7.0 0.00 0.00 0.00 98 1021.9
20191209222805 33 205 4.0 7.0 0.00 0.00 0.00 98 1021.9
20191209222705 33 210 4.0 6.0 0.00 0.00 0.00 98 1021.9
20191209222605 33 211 3.0 6.0 0.00 0.00 0.00 98 1021.9
20191209222506 33 214 3.0 4.0 0.00 0.00 0.00 98 1021.9
20191209222405 33 212 3.0 4.0 0.00 0.00 0.00 98 1021.9
20191209222305 33 211 2.0 4.0 0.00 0.00 0.00 98 1021.9
20191209222205 33 210 3.0 4.0 0.00 0.00 0.00 98 1021.9
20191209222105 33 210 3.0 4.0 0.00 0.00 0.00 98 1021.9
20191209222007 33 207 3.0 4.0 0.00 0.00 0.00 98 1021.9
20191209221906 33 202 2.0 4.0 0.00 0.00 0.00 98 1021.9
20191209221805 33 202 2.0 4.0 0.00 0.00 0.00 98 1021.9
20191209221706 33 197 2.0 6.0 0.00 0.00 0.00 98 1020.9
20191209221605 33 199 2.0 6.0 0.00 0.00 0.00 98 1020.9
20191209221506 33 200 3.0 6.0 0.00 0.00 0.00 98 1020.9
20191209221405 33 201 3.0 6.0 0.00 0.00 0.00 98 1020.9
20191209221306 33 197 3.0 6.0 0.00 0.00 0.00 98 1020.9
20191209221205 33 193 3.0 6.0 0.00 0.00 0.00 98 1020.9
20191209221105 33 189 3.0 6.0 0.00 0.00 0.00 98 1020.9
20191209221007 33 191 2.0 6.0 0.00 0.00 0.00 98 1020.9
20191209220905 33 191 3.0 6.0 0.00 0.00 0.00 98 1020.9
20191209220805 33 191 3.0 6.0 0.00 0.00 0.00 98 1020.9
20191209220706 33 197 1.0 6.0 0.00 0.00 0.00 98 1020.9
20191209220605 33 194 2.0 6.0 0.00 0.00 0.00 98 1020.9
20191209220506 33 193 3.0 6.0 0.00 0.00 0.00 98 1020.9
20191209220405 33 196 4.0 6.0 0.00 0.00 0.00 98 1020.9
20191209220305 33 209 3.0 6.0 0.00 0.00 0.00 98 1020.9
20191209220205 33 227 1.0 3.0 0.00 0.00 0.00 98 1020.9
20191209220105 33 228 1.0 3.0 0.00 0.00 0.00 98 1020.9
20191209220005 33 228 1.0 3.0 0.00 0.00 0.00 98 1020.9
20191209215905 33 244 2.0 5.0 0.00 0.00 0.00 98 1020.9
20191209215805 33 245 1.0 5.0 0.00 0.00 0.00 98 1020.9
20191209215705 33 246 2.0 5.0 0.00 0.00 0.00 98 1020.9
20191209215605 33 249 1.0 5.0 0.00 0.00 0.00 98 1020.9
20191209215507 33 252 1.0 5.0 0.00 0.00 0.00 98 1020.9
20191209215405 33 251 2.0 5.0 0.00 0.00 0.00 98 1020.9
20191209215305 33 248 1.0 5.0 0.00 0.00 0.00 98 1020.9
20191209215205 33 244 1.0 5.0 0.00 0.00 0.00 98 1020.9
20191209215105 33 244 3.0 5.0 0.00 0.00 0.00 98 1020.9
20191209215007 33 245 4.0 5.0 0.00 0.00 0.00 98 1020.9
20191209214905 33 226 3.0 4.0 0.00 0.00 0.00 98 1020.9
20191209214805 33 225 1.0 3.0 0.00 0.00 0.00 98 1020.9
20191209214705 33 219 0.0 3.0 0.00 0.00 0.00 98 1021.9
20191209214605 33 219 0.0 3.0 0.00 0.00 0.00 98 1021.9
20191209214507 33 220 0.0 3.0 0.00 0.00 0.00 98 1021.9
20191209214405 33 222 0.0 3.0 0.00 0.00 0.00 98 1021.9
20191209214305 33 232 2.0 6.0 0.00 0.00 0.00 98 1021.9
20191209214205 33 237 2.0 6.0 0.00 0.00 0.00 98 1021.9
20191209214105 33 243 1.0 6.0 0.00 0.00 0.00 98 1021.9
20191209214006 33 243 0.0 6.0 0.00 0.00 0.00 98 1021.9
20191209213905 33 244 0.0 6.0 0.00 0.00 0.00 98 1021.9
20191209213805 33 243 1.0 6.0 0.00 0.00 0.00 98 1021.9
20191209213705 33 244 0.0 6.0 0.00 0.00 0.00 98 1021.9
20191209213605 33 241 2.0 6.0 0.00 0.00 0.00 98 1021.9
20191209213505 33 238 1.0 6.0 0.00 0.00 0.00 98 1021.9
20191209213405 33 233 4.0 6.0 0.00 0.00 0.00 98 1021.9
20191209213305 33 223 2.0 5.0 0.00 0.00 0.00 98 1021.9
20191209213206 33 217 1.0 5.0 0.00 0.00 0.00 98 1021.9
20191209213105 33 206 3.0 5.0 0.00 0.00 0.00 98 1021.9
20191209213005 33 200 0.0 5.0 0.00 0.00 0.00 98 1021.9
20191209212905 33 193 0.0 4.0 0.00 0.00 0.00 98 1021.9
20191209212805 33 190 0.0 4.0 0.00 0.00 0.00 98 1021.9
20191209212705 33 196 1.0 4.0 0.00 0.00 0.00 98 1021.9
20191209212606 33 195 2.0 4.0 0.00 0.00 0.00 98 1021.9
20191209212505 33 197 2.0 4.0 0.00 0.00 0.00 98 1021.9
20191209212405 33 204 2.0 4.0 0.00 0.00 0.00 98 1021.9
20191209212305 33 206 2.0 4.0 0.00 0.00 0.00 98 1021.9
20191209212205 33 208 2.0 4.0 0.00 0.00 0.00 98 1021.9
20191209212105 33 208 1.0 4.0 0.00 0.00 0.00 98 1021.9
20191209212006 33 210 3.0 4.0 0.00 0.00 0.00 98 1021.9
20191209211905 33 212 2.0 4.0 0.00 0.00 0.00 98 1021.9
20191209211805 33 215 2.0 4.0 0.00 0.00 0.00 98 1021.9
20191209211705 33 210 2.0 4.0 0.00 0.00 0.00 98 1021.9
20191209211605 33 213 2.0 4.0 0.00 0.00 0.00 98 1021.9
20191209211506 33 211 4.0 4.0 0.00 0.00 0.00 98 1021.9
20191209211405 33 209 3.0 4.0 0.00 0.00 0.00 98 1021.9
20191209211305 33 212 3.0 6.0 0.00 0.00 0.00 98 1021.9
20191209211205 33 212 1.0 6.0 0.00 0.00 0.00 98 1021.9
20191209211105 33 215 1.0 6.0 0.00 0.00 0.00 98 1021.9
20191209211007 33 215 1.0 6.0 0.00 0.00 0.00 98 1021.9
20191209210906 33 214 1.0 6.0 0.00 0.00 0.00 98 1021.9
20191209210805 33 213 1.0 6.0 0.00 0.00 0.00 98 1021.9
20191209210705 33 214 2.0 6.0 0.00 0.00 0.00 98 1021.9
20191209210605 33 220 2.0 6.0 0.00 0.00 0.00 98 1021.9
20191209210505 33 222 4.0 6.0 0.00 0.00 0.00 98 1021.9
20191209210405 33 223 3.0 6.0 0.00 0.00 0.00 98 1021.9
20191209210305 33 215 3.0 5.0 0.00 0.00 0.00 98 1021.9
20191209210205 33 216 2.0 5.0 0.00 0.00 0.00 98 1020.9
20191209210105 33 211 1.0 4.0 0.00 0.00 0.00 98 1020.9
20191209210007 33 211 1.0 4.0 0.00 0.00 0.00 98 1020.9
20191209205905 33 215 1.0 4.0 0.00 0.00 0.00 98 1020.9
20191209205805 33 214 2.0 5.0 0.00 0.00 0.00 98 1020.9
20191209205705 33 210 2.0 6.0 0.00 0.00 0.00 98 1020.9
20191209205605 33 202 2.0 6.0 0.00 0.00 0.00 98 1020.9
20191209205506 33 203 1.0 6.0 0.00 0.00 0.00 98 1020.9
20191209205405 33 202 2.0 6.0 0.00 0.00 0.00 98 1020.9
20191209205305 33 204 2.0 6.0 0.00 0.00 0.00 98 1020.9
20191209205205 33 203 2.0 6.0 0.00 0.00 0.00 98 1020.9
20191209205106 33 204 1.0 6.0 0.00 0.00 0.00 98 1020.9
20191209205005 33 205 3.0 6.0 0.00 0.00 0.00 98 1020.9
20191209204905 33 201 4.0 7.0 0.00 0.00 0.00 98 1020.9
20191209204805 33 202 4.0 7.0 0.00 0.00 0.00 98 1020.9
20191209204705 33 204 5.0 7.0 0.00 0.00 0.00 98 1021.9
20191209204605 33 204 3.0 7.0 0.00 0.00 0.00 98 1021.9
20191209204507 33 204 2.0 7.0 0.00 0.00 0.00 98 1021.9
20191209204405 33 203 4.0 7.0 0.00 0.00 0.00 98 1021.9
20191209204305 33 201 4.0 7.0 0.00 0.00 0.00 98 1021.9
20191209204205 33 202 3.0 7.0 0.00 0.00 0.00 98 1021.9
20191209204105 33 201 5.0 7.0 0.00 0.00 0.00 98 1021.9
20191209204007 33 202 3.0 7.0 0.00 0.00 0.00 98 1021.9
20191209203906 33 206 2.0 6.0 0.00 0.00 0.00 98 1021.9
20191209203805 33 207 3.0 6.0 0.00 0.00 0.00 98 1021.9
20191209203705 33 209 2.0 6.0 0.00 0.00 0.00 98 1021.9
20191209203605 33 208 3.0 8.0 0.00 0.00 0.00 98 1021.9
20191209203507 33 203 3.0 10.0 0.00 0.00 0.00 98 1021.9
20191209203405 33 206 2.0 10.0 0.00 0.00 0.00 98 1021.9
20191209203305 33 205 3.0 10.0 0.00 0.00 0.00 98 1021.9
20191209203205 33 201 3.0 10.0 0.00 0.00 0.00 98 1020.9
20191209203105 33 198 1.0 10.0 0.00 0.00 0.00 98 1020.9
20191209203005 33 199 2.0 10.0 0.00 0.00 0.00 98 1020.9
20191209202905 33 199 3.0 10.0 0.00 0.00 0.00 98 1020.9
20191209202805 33 191 3.0 10.0 0.00 0.00 0.00 98 1020.9
20191209202705 33 188 6.0 10.0 0.00 0.00 0.00 98 1020.9
20191209202605 33 186 4.0 10.0 0.00 0.00 0.00 98 1020.9
20191209202506 33 187 6.0 6.0 0.00 0.00 0.00 98 1020.9
20191209202406 33 183 5.0 6.0 0.00 0.00 0.00 98 1020.9
20191209202306 33 185 2.0 6.0 0.00 0.00 0.00 98 1020.9
20191209202206 33 192 1.0 6.0 0.00 0.00 0.00 98 1020.9
20191209202106 33 195 2.0 6.0 0.00 0.00 0.00 98 1020.9
20191209202006 33 192 3.0 6.0 0.00 0.00 0.00 98 1020.9
20191209201905 33 184 4.0 10.0 0.00 0.00 0.00 98 1020.9
20191209201805 33 187 4.0 10.0 0.00 0.00 0.00 98 1020.9
20191209201705 34 191 3.0 10.0 0.00 0.00 0.00 98 1020.9
20191209201605 33 192 3.0 10.0 0.00 0.00 0.00 98 1020.9
20191209201505 33 193 3.0 10.0 0.00 0.00 0.00 98 1020.9
20191209201405 34 195 2.0 10.0 0.00 0.00 0.00 98 1020.9
20191209201305 34 194 4.0 10.0 0.00 0.00 0.00 98 1020.9
20191209201205 33 189 3.0 10.0 0.00 0.00 0.00 98 1020.9
20191209201105 33 185 6.0 10.0 0.00 0.00 0.00 98 1020.9
20191209201007 33 185 6.0 10.0 0.00 0.00 0.00 98 1020.9
20191209200905 34 191 3.0 7.0 0.00 0.00 0.00 98 1020.9
20191209200805 34 190 4.0 7.0 0.00 0.00 0.00 98 1020.9
20191209200705 34 187 4.0 7.0 0.00 0.00 0.00 98 1020.9
20191209200605 34 185 3.0 7.0 0.00 0.00 0.00 98 1020.9
20191209200507 34 185 2.0 7.0 0.00 0.00 0.00 98 1020.9
20191209194205 34 205 2.0 6.0 0.00 0.00 0.00 98 1021.9
20191209194105 34 196 2.0 9.0 0.00 0.00 0.00 98 1021.9
20191209194005 34 189 1.0 9.0 0.00 0.00 0.00 98 1021.9
20191209193905 34 190 1.0 9.0 0.00 0.00 0.00 98 1021.9
20191209193805 34 193 2.0 9.0 0.00 0.00 0.00 98 1021.9
20191209193705 34 196 2.0 9.0 0.00 0.00 0.00 98 1021.9
20191209193605 34 197 3.0 9.0 0.00 0.00 0.00 98 1021.9
20191209193507 34 192 5.0 10.0 0.00 0.00 0.00 98 1021.9
20191209193405 34 192 3.0 10.0 0.00 0.00 0.00 98 1021.9
20191209193305 33 194 4.0 10.0 0.00 0.00 0.00 98 1021.9
20191209193205 34 194 5.0 10.0 0.00 0.00 0.00 98 1020.9
20191209193105 34 199 4.0 10.0 0.00 0.00 0.00 98 1020.9
20191209193005 34 198 3.0 10.0 0.00 0.00 0.00 98 1020.9
20191209192905 34 198 4.0 10.0 0.00 0.00 0.00 98 1020.9
20191209192805 34 196 6.0 10.0 0.00 0.00 0.00 98 1020.9
20191209192705 34 192 7.0 10.0 0.00 0.00 0.00 98 1020.9
20191209192605 34 190 3.0 10.0 0.00 0.00 0.00 98 1020.9
20191209192505 34 187 1.0 7.0 0.00 0.00 0.00 98 1020.9
20191209192405 34 187 2.0 8.0 0.00 0.00 0.00 98 1020.9
20191209192305 34 184 1.0 8.0 0.00 0.00 0.00 98 1020.9
20191209192205 34 187 4.0 8.0 0.00 0.00 0.00 98 1020.9
20191209192105 34 186 4.0 8.0 0.00 0.00 0.00 98 1020.9
20191209192006 34 188 4.0 8.0 0.00 0.00 0.00 98 1020.9
20191209191906 34 180 3.0 8.0 0.00 0.00 0.00 98 1020.9
20191209191805 34 175 3.0 8.0 0.00 0.00 0.00 98 1020.9
20191209191705 34 181 4.0 8.0 0.00 0.00 0.00 98 1019.9
20191209191605 34 179 3.0 8.0 0.00 0.00 0.00 98 1019.9
20191209191505 34 184 5.0 8.0 0.00 0.00 0.00 98 1019.9
20191209191405 34 187 2.0 6.0 0.00 0.00 0.00 98 1019.9
20191209191305 34 188 4.0 6.0 0.00 0.00 0.00 98 1019.9
20191209191205 34 182 3.0 6.0 0.00 0.00 0.00 98 1019.9
20191209191104 34 182 4.0 6.0 0.00 0.00 0.00 98 1019.9
20191209191005 34 183 4.0 6.0 0.00 0.00 0.00 98 1019.9
20191209190905 34 191 2.0 6.0 0.00 0.00 0.00 98 1019.9
20191209190805 34 191 3.0 6.0 0.00 0.00 0.00 98 1019.9
20191209190705 34 187 3.0 6.0 0.00 0.00 0.00 98 1019.9
20191209190605 34 186 3.0 6.0 0.00 0.00 0.00 98 1019.9
20191209190506 34 184 2.0 6.0 0.00 0.00 0.00 98 1019.9
20191209190405 34 183 5.0 6.0 0.00 0.00 0.00 98 1019.9
20191209190305 34 180 4.0 6.0 0.00 0.00 0.00 98 1019.9
20191209190206 34 180 2.0 6.0 0.00 0.00 0.00 98 1020.9
20191209190105 34 181 3.0 7.0 0.00 0.00 0.00 98 1020.9
20191209190007 34 180 3.0 7.0 0.00 0.00 0.00 98 1020.9
20191209185904 34 178 3.0 7.0 0.00 0.00 0.00 98 1020.9
20191209185805 34 176 4.0 7.0 0.00 0.00 0.00 98 1020.9
20191209185705 34 174 3.0 7.0 0.00 0.00 0.00 98 1020.9
20191209185605 34 173 3.0 7.0 0.00 0.00 0.00 98 1020.9
20191209185506 34 175 3.0 7.0 0.00 0.00 0.00 98 1020.9
20191209185405 34 176 5.0 7.0 0.00 0.00 0.00 98 1020.9
20191209185304 34 179 5.0 7.0 0.00 0.00 0.00 98 1020.9
20191209185205 34 180 4.0 7.0 0.00 0.00 0.00 98 1020.9
20191209185105 34 184 4.0 6.0 0.00 0.00 0.00 98 1020.9
20191209185005 34 189 5.0 6.0 0.00 0.00 0.00 98 1020.9
20191209184905 34 195 5.0 6.0 0.00 0.00 0.00 98 1020.9
20191209184805 34 202 2.0 6.0 0.00 0.00 0.00 98 1020.9
20191209184705 34 212 1.0 6.0 0.00 0.00 0.00 98 1020.9
20191209184605 34 213 2.0 6.0 0.00 0.00 0.00 98 1020.9
20191209184505 34 210 4.0 6.0 0.00 0.00 0.00 98 1020.9
20191209184405 34 209 4.0 6.0 0.00 0.00 0.00 98 1020.9
20191209184305 34 212 4.0 5.0 0.00 0.00 0.00 98 1020.9
20191209184205 34 213 2.0 5.0 0.00 0.00 0.00 98 1020.9
20191209184105 34 210 3.0 5.0 0.00 0.00 0.00 98 1020.9
20191209184006 34 206 4.0 5.0 0.00 0.00 0.00 98 1020.9
20191209183905 34 199 3.0 7.0 0.00 0.00 0.00 98 1020.9
20191209183805 34 191 2.0 7.0 0.00 0.00 0.00 98 1020.9
20191209183706 34 187 2.0 7.0 0.00 0.00 0.00 98 1020.9
20191209183604 34 189 3.0 7.0 0.00 0.00 0.00 98 1020.9
20191209183505 34 190 2.0 7.0 0.00 0.00 0.00 98 1020.9
20191209183405 34 190 2.0 7.0 0.00 0.00 0.00 98 1020.9
20191209183305 34 187 1.0 7.0 0.00 0.00 0.00 98 1020.9
20191209183205 34 189 2.0 7.0 0.00 0.00 0.00 98 1020.9
20191209183105 34 190 4.0 7.0 0.00 0.00 0.00 98 1020.9
20191209183004 34 191 4.0 7.0 0.00 0.00 0.00 98 1020.9
20191209182905 34 190 4.0 6.0 0.00 0.00 0.00 98 1020.9
20191209182805 34 191 2.0 6.0 0.00 0.00 0.00 98 1020.9
20191209182705 34 192 3.0 6.0 0.00 0.00 0.00 98 1020.9
20191209182605 34 190 3.0 6.0 0.00 0.00 0.00 98 1020.9
20191209182506 34 193 4.0 6.0 0.00 0.00 0.00 98 1020.9
20191209182404 34 194 3.0 6.0 0.00 0.00 0.00 98 1020.9
20191209182305 34 198 3.0 5.0 0.00 0.00 0.00 98 1020.9
20191209182205 34 198 1.0 5.0 0.00 0.00 0.00 98 1020.9
20191209182105 34 194 2.0 5.0 0.00 0.00 0.00 98 1020.9
20191209182005 34 192 3.0 5.0 0.00 0.00 0.00 98 1020.9
20191209181905 34 187 3.0 6.0 0.00 0.00 0.00 98 1020.9
20191209181805 34 188 3.0 6.0 0.00 0.00 0.00 98 1020.9
20191209181705 34 186 3.0 6.0 0.00 0.00 0.00 98 1020.9
20191209181605 34 188 3.0 6.0 0.00 0.00 0.00 98 1020.9
20191209181506 34 186 2.0 6.0 0.00 0.00 0.00 98 1020.9
20191209181405 34 190 4.0 6.0 0.00 0.00 0.00 98 1020.9
20191209181305 34 188 5.0 6.0 0.00 0.00 0.00 98 1020.9
20191209181205 34 186 3.0 6.0 0.00 0.00 0.00 98 1020.9
20191209181105 34 182 3.0 6.0 0.00 0.00 0.00 98 1020.9
20191209181005 34 181 4.0 6.0 0.00 0.00 0.00 98 1020.9
20191209180905 34 181 3.0 5.0 0.00 0.00 0.00 98 1020.9
20191209180805 34 181 2.0 5.0 0.00 0.00 0.00 98 1020.9
20191209180705 34 182 2.0 5.0 0.00 0.00 0.00 98 1020.9
20191209180605 34 181 2.0 5.0 0.00 0.00 0.00 98 1020.9
20191209180506 34 180 2.0 5.0 0.00 0.00 0.00 98 1020.9
20191209180405 34 173 4.0 6.0 0.00 0.00 0.00 98 1020.9
20191209180305 34 171 4.0 6.0 0.00 0.00 0.00 98 1020.9
20191209180205 34 170 3.0 6.0 0.00 0.00 0.00 98 1020.9
20191209180106 34 174 4.0 6.0 0.00 0.00 0.00 98 1020.9
20191209180006 34 177 4.0 6.0 0.00 0.00 0.00 98 1020.9
20191209175905 34 180 2.0 6.0 0.00 0.00 0.00 98 1020.9
20191209175805 34 180 2.0 6.0 0.00 0.00 0.00 98 1020.9
20191209175705 34 182 2.0 6.0 0.00 0.00 0.00 98 1020.9
20191209175605 34 181 4.0 6.0 0.00 0.00 0.00 98 1020.9
20191209175504 34 183 4.0 6.0 0.00 0.00 0.00 98 1020.9
20191209175405 34 191 3.0 5.0 0.00 0.00 0.00 98 1020.9
20191209175305 34 194 1.0 5.0 0.00 0.00 0.00 98 1020.9
20191209175205 34 186 1.0 5.0 0.00 0.00 0.00 98 1020.9
20191209175105 34 185 2.0 5.0 0.00 0.00 0.00 98 1020.9
20191209175005 34 184 3.0 5.0 0.00 0.00 0.00 98 1020.9
20191209174905 34 184 4.0 5.0 0.00 0.00 0.00 98 1020.9
20191209174805 34 184 2.0 5.0 0.00 0.00 0.00 98 1020.9
20191209174705 34 182 3.0 5.0 0.00 0.00 0.00 98 1020.9
20191209174605 34 182 2.0 5.0 0.00 0.00 0.00 98 1020.9
20191209174505 34 182 3.0 5.0 0.00 0.00 0.00 98 1020.9
20191209174405 34 182 4.0 5.0 0.00 0.00 0.00 98 1020.9
20191209174304 34 181 4.0 5.0 0.00 0.00 0.00 98 1020.9
20191209174205 34 188 3.0 5.0 0.00 0.00 0.00 98 1020.9
20191209174105 34 189 3.0 5.0 0.00 0.00 0.00 98 1020.9
20191209174006 34 189 3.0 4.0 0.00 0.00 0.00 98 1020.9
20191209173905 34 190 3.0 4.0 0.00 0.00 0.00 98 1020.9
20191209173805 34 191 3.0 4.0 0.00 0.00 0.00 98 1020.9
20191209173705 34 191 2.0 4.0 0.00 0.00 0.00 98 1020.9
20191209173605 34 191 1.0 4.0 0.00 0.00 0.00 98 1020.9
20191209173506 34 189 1.0 4.0 0.00 0.00 0.00 98 1020.9
20191209173405 34 185 2.0 4.0 0.00 0.00 0.00 98 1020.9
20191209173305 34 183 2.0 4.0 0.00 0.00 0.00 98 1020.9
20191209173205 34 182 3.0 4.0 0.00 0.00 0.00 98 1020.9
20191209173105 34 182 2.0 4.0 0.00 0.00 0.00 98 1020.9
20191209173005 34 181 2.0 4.0 0.00 0.00 0.00 98 1020.9
20191209172905 34 176 2.0 4.0 0.00 0.00 0.00 98 1020.9
20191209172805 34 176 1.0 4.0 0.00 0.00 0.00 98 1020.9
20191209172705 34 176 2.0 4.0 0.00 0.00 0.00 98 1020.9
20191209172606 34 176 3.0 4.0 0.00 0.00 0.00 98 1020.9
20191209172505 34 178 3.0 4.0 0.00 0.00 0.00 98 1020.9
20191209172405 34 178 2.0 4.0 0.00 0.00 0.00 98 1020.9
20191209172305 34 178 3.0 4.0 0.00 0.00 0.00 98 1020.9
20191209172205 34 178 4.0 4.0 0.00 0.00 0.00 98 1020.9
20191209172105 34 180 2.0 4.0 0.00 0.00 0.00 98 1020.9
20191209172004 34 182 2.0 4.0 0.00 0.00 0.00 98 1020.9
20191209171905 34 185 4.0 4.0 0.00 0.00 0.00 98 1020.9
20191209171805 34 189 3.0 4.0 0.00 0.00 0.00 98 1020.9
20191209171706 34 192 3.0 3.0 0.00 0.00 0.00 98 1020.9
20191209171606 34 192 2.0 4.0 0.00 0.00 0.00 98 1020.9
20191209171505 34 191 2.0 4.0 0.00 0.00 0.00 98 1020.9
20191209171405 34 190 2.0 4.0 0.00 0.00 0.00 98 1020.9
20191209171305 34 195 1.0 4.0 0.00 0.00 0.00 98 1020.9
20191209171205 34 197 2.0 4.0 0.00 0.00 0.00 98 1020.9
20191209171105 34 192 1.0 4.0 0.00 0.00 0.00 98 1020.9
20191209171005 34 189 0.0 4.0 0.00 0.00 0.00 98 1020.9
20191209170905 34 189 1.0 4.0 0.00 0.00 0.00 98 1020.9
20191209170805 34 187 3.0 4.0 0.00 0.00 0.00 98 1020.9
20191209170705 34 187 3.0 4.0 0.00 0.00 0.00 98 1020.9
20191209170605 34 188 3.0 4.0 0.00 0.00 0.00 98 1020.9
20191209170505 34 190 2.0 4.0 0.00 0.00 0.00 98 1020.9
20191209170405 34 195 2.0 4.0 0.00 0.00 0.00 98 1020.9
20191209170305 34 190 2.0 4.0 0.00 0.00 0.00 98 1020.9
20191209170205 34 188 1.0 4.0 0.00 0.00 0.00 98 1020.9
20191209170105 34 190 3.0 5.0 0.00 0.00 0.00 98 1020.9
20191209170005 34 188 1.0 5.0 0.00 0.00 0.00 98 1020.9
20191209165905 34 188 2.0 5.0 0.00 0.00 0.00 98 1020.9
20191209165805 34 186 1.0 5.0 0.00 0.00 0.00 98 1020.9
20191209165705 34 184 1.0 5.0 0.00 0.00 0.00 98 1020.9
20191209165604 34 184 2.0 5.0 0.00 0.00 0.00 98 1020.9
20191209165505 34 183 2.0 5.0 0.00 0.00 0.00 98 1020.9
20191209165405 34 180 2.0 5.0 0.00 0.00 0.00 98 1020.9
20191209165305 34 179 4.0 5.0 0.00 0.00 0.00 98 1020.9
20191209165205 34 180 4.0 5.0 0.00 0.00 0.00 98 1020.9
20191209165106 34 180 4.0 5.0 0.00 0.00 0.00 98 1020.9
20191209165005 34 182 4.0 5.0 0.00 0.00 0.00 98 1020.9
20191209164905 34 183 4.0 5.0 0.00 0.00 0.00 98 1020.9
20191209164805 34 186 4.0 5.0 0.00 0.00 0.00 98 1020.9
20191209164705 34 190 2.0 4.0 0.00 0.00 0.00 98 1020.9
20191209164605 34 191 3.0 4.0 0.00 0.00 0.00 98 1020.9
20191209164507 34 191 3.0 4.0 0.00 0.00 0.00 98 1020.9
20191209164405 34 191 3.0 4.0 0.00 0.00 0.00 98 1020.9
20191209164305 34 191 4.0 4.0 0.00 0.00 0.00 98 1020.9
20191209164205 34 192 4.0 4.0 0.00 0.00 0.00 98 1020.9
20191209164105 34 193 2.0 4.0 0.00 0.00 0.00 98 1020.9
20191209164007 34 191 2.0 4.0 0.00 0.00 0.00 98 1020.9
20191209163904 34 188 2.0 4.0 0.00 0.00 0.00 98 1020.9
20191209163805 34 184 2.0 4.0 0.00 0.00 0.00 98 1020.9
20191209163705 34 181 2.0 4.0 0.00 0.00 0.00 98 1020.9
20191209163605 34 180 2.0 4.0 0.00 0.00 0.00 98 1020.9
20191209163506 34 181 3.0 4.0 0.00 0.00 0.00 98 1020.9
20191209163405 34 179 2.0 4.0 0.00 0.00 0.00 98 1020.9
20191209163304 34 179 2.0 4.0 0.00 0.00 0.00 98 1020.9
20191209163205 34 180 2.0 4.0 0.00 0.00 0.00 98 1020.9
20191209163105 34 183 2.0 4.0 0.00 0.00 0.00 98 1020.9
20191209163006 34 183 2.0 4.0 0.00 0.00 0.00 98 1020.9
20191209162905 34 183 2.0 4.0 0.00 0.00 0.00 98 1020.9
20191209162805 34 183 4.0 4.0 0.00 0.00 0.00 98 1020.9
20191209162704 34 183 2.0 4.0 0.00 0.00 0.00 98 1020.9
20191209162605 34 183 3.0 4.0 0.00 0.00 0.00 98 1020.9
20191209162505 34 182 3.0 4.0 0.00 0.00 0.00 98 1020.9
20191209162405 34 184 2.0 4.0 0.00 0.00 0.00 98 1020.9
20191209162305 34 184 2.0 4.0 0.00 0.00 0.00 98 1020.9
20191209162205 34 183 2.0 4.0 0.00 0.00 0.00 98 1020.9
20191209162105 34 181 2.0 4.0 0.00 0.00 0.00 97 1020.9
20191209162005 34 181 2.0 6.0 0.00 0.00 0.00 97 1020.9
20191209161905 34 184 2.0 6.0 0.00 0.00 0.00 97 1020.9
20191209161805 34 183 1.0 6.0 0.00 0.00 0.00 97 1020.9
20191209161706 34 181 3.0 6.0 0.00 0.00 0.00 97 1020.9
20191209161605 34 183 2.0 6.0 0.00 0.00 0.00 97 1020.9
20191209161504 34 184 3.0 6.0 0.00 0.00 0.00 97 1020.9
20191209161405 34 185 2.0 6.0 0.00 0.00 0.00 97 1020.9
20191209161305 34 187 4.0 6.0 0.00 0.00 0.00 97 1020.9
20191209161205 34 188 4.0 6.0 0.00 0.00 0.00 97 1020.9
20191209161105 34 188 2.0 6.0 0.00 0.00 0.00 97 1020.9
20191209161007 34 189 2.0 4.0 0.00 0.00 0.00 97 1020.9
20191209160905 34 187 3.0 4.0 0.00 0.00 0.00 97 1020.9
20191209160805 34 190 2.0 4.0 0.00 0.00 0.00 97 1020.9
20191209160705 34 191 2.0 4.0 0.00 0.00 0.00 97 1020.9
20191209160605 34 188 3.0 5.0 0.00 0.00 0.00 97 1020.9
20191209160507 34 187 2.0 5.0 0.00 0.00 0.00 97 1020.9
20191209160405 34 185 1.0 5.0 0.00 0.00 0.00 97 1020.9
20191209160305 34 180 1.0 5.0 0.00 0.00 0.00 97 1020.9
20191209160205 34 180 3.0 5.0 0.00 0.00 0.00 97 1020.9
20191209160105 34 183 2.0 5.0 0.00 0.00 0.00 97 1020.9
20191209160005 34 184 2.0 5.0 0.00 0.00 0.00 97 1020.9
20191209155905 34 182 4.0 5.0 0.00 0.00 0.00 97 1020.9
20191209155804 34 181 3.0 5.0 0.00 0.00 0.00 97 1020.9
20191209155704 34 181 3.0 5.0 0.00 0.00 0.00 97 1020.9
20191209155605 34 182 1.0 4.0 0.00 0.00 0.00 97 1020.9
20191209155505 34 182 3.0 4.0 0.00 0.00 0.00 97 1020.9
20191209155405 34 183 3.0 4.0 0.00 0.00 0.00 97 1020.9
20191209155305 34 187 2.0 5.0 0.00 0.00 0.00 97 1020.9
20191209155204 34 187 2.0 5.0 0.00 0.00 0.00 97 1020.9
20191209155105 34 187 2.0 5.0 0.00 0.00 0.00 97 1020.9
20191209155006 34 187 3.0 5.0 0.00 0.00 0.00 97 1020.9
20191209154905 34 190 3.0 5.0 0.00 0.00 0.00 97 1020.9
20191209154805 34 194 2.0 5.0 0.00 0.00 0.00 97 1020.9
20191209154705 34 198 2.0 5.0 0.00 0.00 0.00 97 1020.9
20191209154604 34 201 2.0 5.0 0.00 0.00 0.00 97 1020.9
20191209154506 34 203 4.0 5.0 0.00 0.00 0.00 97 1020.9
20191209154405 34 209 3.0 5.0 0.00 0.00 0.00 97 1020.9
20191209154305 34 216 2.0 3.0 0.00 0.00 0.00 97 1020.9
20191209154206 34 222 2.0 3.0 0.00 0.00 0.00 97 1020.9
20191209154105 34 225 2.0 2.0 0.00 0.00 0.00 97 1020.9
20191209154006 34 225 1.0 2.0 0.00 0.00 0.00 97 1020.9
20191209153905 34 225 1.0 2.0 0.00 0.00 0.00 96 1020.9
20191209153805 34 225 1.0 2.0 0.00 0.00 0.00 96 1020.9
20191209153705 34 225 1.0 2.0 0.00 0.00 0.00 96 1020.9
20191209153605 34 225 1.0 2.0 0.00 0.00 0.00 96 1020.9
20191209153505 34 221 1.0 2.0 0.00 0.00 0.00 97 1020.9
20191209153405 34 221 0.0 2.0 0.00 0.00 0.00 97 1020.9
20191209153305 34 221 1.0 2.0 0.00 0.00 0.00 97 1020.9
20191209153205 34 221 1.0 2.0 0.00 0.00 0.00 97 1020.9
20191209153105 34 221 1.0 2.0 0.00 0.00 0.00 97 1020.9
20191209153005 34 222 1.0 2.0 0.00 0.00 0.00 97 1020.9
20191209152904 34 222 1.0 2.0 0.00 0.00 0.00 97 1020.9
20191209152805 34 222 1.0 2.0 0.00 0.00 0.00 97 1020.9
20191209152705 34 222 1.0 2.0 0.00 0.00 0.00 97 1020.9
20191209152605 34 222 1.0 2.0 0.00 0.00 0.00 97 1020.9
20191209152506 34 225 1.0 2.0 0.00 0.00 0.00 97 1020.9
20191209152405 34 225 1.0 2.0 0.00 0.00 0.00 97 1020.9
20191209152304 34 225 1.0 2.0 0.00 0.00 0.00 97 1020.9
20191209152205 34 228 1.0 3.0 0.00 0.00 0.00 97 1020.9
20191209152105 34 232 1.0 3.0 0.00 0.00 0.00 97 1020.9
20191209152005 34 236 0.0 3.0 0.00 0.00 0.00 96 1020.9
20191209151905 34 241 1.0 3.0 0.00 0.00 0.00 96 1020.9
20191209151806 34 245 2.0 3.0 0.00 0.00 0.00 96 1020.9
20191209151705 34 250 1.0 3.0 0.00 0.00 0.00 97 1020.9
20191209151605 34 260 1.0 3.0 0.00 0.00 0.00 96 1020.9
20191209151505 34 271 0.0 3.0 0.00 0.00 0.00 97 1020.9
20191209151405 34 273 1.0 3.0 0.00 0.00 0.00 97 1020.9
20191209151305 34 279 1.0 3.0 0.00 0.00 0.00 97 1020.9
20191209151206 34 293 0.0 2.0 0.00 0.00 0.00 97 1020.9
20191209151105 34 298 2.0 2.0 0.00 0.00 0.00 97 1020.9
20191209151007 34 301 1.0 3.0 0.00 0.00 0.00 96 1020.9
20191209150905 34 307 2.0 3.0 0.00 0.00 0.00 96 1020.9
20191209150805 34 310 0.0 3.0 0.00 0.00 0.00 96 1020.9
20191209150705 34 307 1.0 3.0 0.00 0.00 0.00 96 1020.9
20191209150605 34 292 0.0 3.0 0.00 0.00 0.00 96 1020.9
20191209150504 34 285 1.0 3.0 0.00 0.00 0.00 96 1020.9
20191209150405 34 283 1.0 3.0 0.00 0.00 0.00 96 1020.9
20191209150305 34 284 2.0 3.0 0.00 0.00 0.00 96 1020.9
20191209150207 34 274 2.0 5.0 0.00 0.00 0.00 96 1020.9
20191209150105 34 265 1.0 6.0 0.00 0.00 0.00 96 1020.9
20191209150007 34 260 0.0 6.0 0.00 0.00 0.00 96 1020.9
20191209145905 34 255 0.0 6.0 0.00 0.00 0.00 96 1020.9
20191209145805 34 252 2.0 6.0 0.00 0.00 0.00 96 1020.9
20191209145705 34 249 2.0 6.0 0.00 0.00 0.00 96 1020.9
20191209145605 34 248 2.0 6.0 0.00 0.00 0.00 96 1020.9
20191209145507 34 246 1.0 6.0 0.00 0.00 0.00 96 1020.9
20191209145405 35 240 2.0 6.0 0.00 0.00 0.00 96 1020.9
20191209145305 34 234 4.0 6.0 0.00 0.00 0.00 96 1020.9
20191209145205 34 231 3.0 6.0 0.00 0.00 0.00 96 1020.9
20191209145105 35 227 1.0 4.0 0.00 0.00 0.00 96 1020.9
20191209145005 35 223 1.0 4.0 0.00 0.00 0.00 96 1020.9
20191209144905 34 228 1.0 4.0 0.00 0.00 0.00 96 1020.9
20191209144804 34 239 2.0 4.0 0.00 0.00 0.00 96 1020.9
20191209144705 34 247 1.0 4.0 0.00 0.00 0.00 96 1020.9
20191209144605 35 258 1.0 4.0 0.00 0.00 0.00 96 1020.9
20191209144505 35 255 1.0 4.0 0.00 0.00 0.00 96 1020.9
20191209144405 35 260 1.0 4.0 0.00 0.00 0.00 96 1020.9
20191209144305 35 261 3.0 4.0 0.00 0.00 0.00 96 1020.9
20191209144204 35 255 1.0 4.0 0.00 0.00 0.00 96 1020.9
20191209144105 35 254 0.0 4.0 0.00 0.00 0.00 96 1020.9
20191209144005 35 259 0.0 4.0 0.00 0.00 0.00 96 1020.9
20191209143905 35 258 2.0 4.0 0.00 0.00 0.00 96 1020.9
20191209143805 35 257 2.0 4.0 0.00 0.00 0.00 96 1020.9
20191209143705 35 254 2.0 4.0 0.00 0.00 0.00 96 1020.9
20191209143604 35 247 1.0 4.0 0.00 0.00 0.00 96 1020.9
20191209143505 35 249 2.0 4.0 0.00 0.00 0.00 96 1020.9
20191209143405 35 251 2.0 4.0 0.00 0.00 0.00 96 1020.9
20191209143305 35 254 3.0 5.0 0.00 0.00 0.00 96 1020.9
20191209143205 35 258 2.0 5.0 0.00 0.00 0.00 96 1019.9
20191209143105 35 254 3.0 5.0 0.00 0.00 0.00 96 1019.9
20191209143005 35 247 1.0 5.0 0.00 0.00 0.00 96 1019.9
20191209142905 35 248 1.0 5.0 0.00 0.00 0.00 96 1019.9
20191209142805 35 247 2.0 5.0 0.00 0.00 0.00 96 1019.9
20191209142705 35 243 1.0 5.0 0.00 0.00 0.00 96 1019.9
20191209142605 35 238 2.0 5.0 0.00 0.00 0.00 96 1019.9
20191209142506 35 230 3.0 5.0 0.00 0.00 0.00 96 1019.9
20191209142404 35 225 4.0 5.0 0.00 0.00 0.00 96 1019.9
20191209142305 35 215 2.0 5.0 0.00 0.00 0.00 96 1019.9
20191209142205 35 207 3.0 4.0 0.00 0.00 0.00 96 1019.9
20191209142105 35 207 2.0 4.0 0.00 0.00 0.00 96 1019.9
20191209142007 35 203 2.0 4.0 0.00 0.00 0.00 96 1019.9
20191209141905 35 198 1.0 6.0 0.00 0.00 0.00 96 1019.9
20191209141804 35 193 2.0 8.0 0.00 0.00 0.00 96 1019.9
20191209141705 35 192 3.0 8.0 0.00 0.00 0.00 96 1020.9
20191209141605 35 191 3.0 8.0 0.00 0.00 0.00 96 1020.9
20191209141506 35 194 2.0 8.0 0.00 0.00 0.00 97 1020.9
20191209141405 35 193 2.0 8.0 0.00 0.00 0.00 96 1020.9
20191209141305 35 192 2.0 8.0 0.00 0.00 0.00 96 1020.9
20191209141205 35 193 2.0 8.0 0.00 0.00 0.00 96 1020.9
20191209141105 35 189 2.0 8.0 0.00 0.00 0.00 97 1020.9
20191209141007 35 189 4.0 8.0 0.00 0.00 0.00 97 1020.9
20191209140905 35 190 3.0 8.0 0.00 0.00 0.00 96 1020.9
20191209140805 35 193 2.0 6.0 0.00 0.00 0.00 96 1020.9
20191209140704 35 196 2.0 6.0 0.00 0.00 0.00 97 1020.9
20191209140605 35 198 3.0 6.0 0.00 0.00 0.00 97 1020.9
20191209140505 35 196 4.0 6.0 0.00 0.00 0.00 97 1020.9
20191209140405 35 197 3.0 6.0 0.00 0.00 0.00 97 1020.9
20191209140305 35 200 4.0 6.0 0.00 0.00 0.00 97 1020.9
20191209140205 35 199 2.0 6.0 0.00 0.00 0.00 96 1019.9
20191209140104 35 199 4.0 6.0 0.00 0.00 0.00 97 1019.9
20191209140005 35 199 3.0 6.0 0.00 0.00 0.00 97 1019.9
20191209135905 35 201 2.0 6.0 0.00 0.00 0.00 97 1019.9
20191209135805 35 202 2.0 6.0 0.00 0.00 0.00 97 1019.9
20191209135705 35 201 2.0 6.0 0.00 0.00 0.00 97 1019.9
20191209135605 35 201 2.0 6.0 0.00 0.00 0.00 97 1019.9
20191209135504 35 201 2.0 6.0 0.00 0.00 0.00 97 1019.9
20191209135405 35 200 3.0 6.0 0.00 0.00 0.00 97 1019.9
20191209135305 35 196 5.0 6.0 0.00 0.00 0.00 97 1019.9
20191209135205 35 198 3.0 6.0 0.00 0.00 0.00 97 1019.9
20191209135105 35 198 2.0 4.0 0.00 0.00 0.00 97 1019.9
20191209135005 35 196 2.0 4.0 0.00 0.00 0.00 97 1019.9
20191209134904 35 194 2.0 4.0 0.00 0.00 0.00 97 1019.9
20191209134805 35 191 3.0 4.0 0.00 0.00 0.00 97 1019.9
20191209134705 35 189 2.0 4.0 0.00 0.00 0.00 97 1019.9
20191209134605 35 187 2.0 4.0 0.00 0.00 0.00 97 1019.9
20191209134505 35 187 3.0 4.0 0.00 0.00 0.00 97 1019.9
20191209134405 35 184 4.0 4.0 0.00 0.00 0.00 97 1019.9
20191209134304 35 185 2.0 4.0 0.00 0.00 0.00 97 1019.9
20191209134205 35 186 3.0 4.0 0.00 0.00 0.00 97 1019.9
20191209134105 35 189 1.0 4.0 0.00 0.00 0.00 97 1019.9
20191209134006 35 193 2.0 3.0 0.00 0.00 0.00 97 1019.9
20191209133905 35 194 2.0 3.0 0.00 0.00 0.00 97 1019.9
20191209133804 35 204 2.0 3.0 0.00 0.00 0.00 97 1019.9
20191209133704 35 199 1.0 3.0 0.00 0.00 0.00 97 1019.9
20191209133605 35 195 2.0 3.0 0.00 0.00 0.00 97 1019.9
20191209133505 35 193 1.0 3.0 0.00 0.00 0.00 97 1019.9
20191209133405 35 192 2.0 3.0 0.00 0.00 0.00 97 1019.9
20191209133305 35 190 1.0 3.0 0.00 0.00 0.00 97 1019.9
20191209133204 35 194 1.0 3.0 0.00 0.00 0.00 97 1019.9
20191209133104 35 194 0.0 3.0 0.00 0.00 0.00 97 1019.9
20191209133006 35 195 1.0 3.0 0.00 0.00 0.00 97 1019.9
20191209132906 35 196 1.0 3.0 0.00 0.00 0.00 97 1019.9
20191209132805 35 190 2.0 3.0 0.00 0.00 0.00 97 1019.9
20191209132705 35 191 1.0 3.0 0.00 0.00 0.00 97 1019.9
20191209132604 35 193 1.0 3.0 0.00 0.00 0.00 98 1019.9
20191209132504 35 193 2.0 3.0 0.00 0.00 0.00 98 1019.9
20191209132405 35 194 2.0 3.0 0.00 0.00 0.00 98 1019.9
20191209132305 35 201 1.0 3.0 0.00 0.00 0.00 97 1019.9
20191209132205 35 203 1.0 3.0 0.00 0.00 0.00 97 1019.9
20191209132105 35 210 1.0 3.0 0.00 0.00 0.00 98 1019.9
20191209132005 35 212 2.0 3.0 0.00 0.00 0.00 98 1019.9
20191209131905 35 206 2.0 4.0 0.00 0.00 0.00 98 1019.9
20191209131805 35 204 1.0 4.0 0.00 0.00 0.00 98 1019.9
20191209131705 35 202 1.0 4.0 0.00 0.00 0.00 98 1019.9
20191209131605 35 199 2.0 4.0 0.00 0.00 0.00 98 1019.9
20191209131505 35 197 1.0 4.0 0.00 0.00 0.00 98 1019.9
20191209131404 35 194 1.0 4.0 0.00 0.00 0.00 98 1019.9
20191209131305 35 184 1.0 4.0 0.00 0.00 0.00 98 1019.9
20191209131205 35 181 1.0 4.0 0.00 0.00 0.00 98 1019.9
20191209131106 35 177 2.0 4.0 0.00 0.00 0.00 98 1019.9
20191209131006 35 175 3.0 4.0 0.00 0.00 0.00 98 1019.9
20191209130906 35 175 3.0 4.0 0.00 0.00 0.00 97 1019.9
20191209130804 34 175 3.0 4.0 0.00 0.00 0.00 97 1019.9
20191209130705 34 175 2.0 4.0 0.00 0.00 0.00 97 1019.9
20191209130606 34 172 3.0 4.0 0.00 0.00 0.00 97 1019.9
20191209130505 34 171 3.0 4.0 0.00 0.00 0.00 97 1019.9
20191209130405 34 173 3.0 4.0 0.00 0.00 0.00 97 1019.9
20191209130305 34 177 2.0 5.0 0.00 0.00 0.00 97 1019.9
20191209130205 34 177 2.0 5.0 0.00 0.00 0.00 97 1019.9
20191209130105 34 178 2.0 5.0 0.00 0.00 0.00 97 1019.9
20191209130006 34 180 2.0 5.0 0.00 0.00 0.00 97 1019.9
20191209125905 34 180 3.0 5.0 0.00 0.00 0.00 97 1019.9
20191209125805 34 179 2.0 5.0 0.00 0.00 0.00 98 1019.9
20191209125704 34 178 3.0 5.0 0.00 0.00 0.00 98 1019.9
20191209125605 34 180 3.0 5.0 0.00 0.00 0.00 98 1019.9
20191209125506 34 180 4.0 5.0 0.00 0.00 0.00 98 1019.9
20191209125405 35 180 2.0 5.0 0.00 0.00 0.00 98 1019.9
20191209125305 35 180 0.0 5.0 0.00 0.00 0.00 98 1019.9
20191209125205 35 182 1.0 5.0 0.00 0.00 0.00 97 1019.9
20191209125104 34 180 2.0 5.0 0.00 0.00 0.00 98 1019.9
20191209125004 34 179 4.0 6.0 0.00 0.00 0.00 98 1019.9
20191209124904 34 179 3.0 6.0 0.00 0.00 0.00 98 1019.9
20191209124805 34 181 3.0 6.0 0.00 0.00 0.00 98 1019.9
20191209124705 34 183 3.0 6.0 0.00 0.00 0.00 98 1019.9
20191209124605 35 183 2.0 6.0 0.00 0.00 0.00 98 1019.9
20191209124505 35 183 2.0 6.0 0.00 0.00 0.00 98 1019.9
20191209124404 35 183 3.0 6.0 0.00 0.00 0.00 98 1019.9
20191209124305 35 183 2.0 6.0 0.00 0.00 0.00 98 1019.9
20191209124205 35 181 4.0 6.0 0.00 0.00 0.00 98 1019.9
20191209124105 35 182 3.0 6.0 0.00 0.00 0.00 98 1019.9
20191209124005 35 182 2.0 6.0 0.00 0.00 0.00 98 1019.9
20191209123904 35 181 2.0 6.0 0.00 0.00 0.00 98 1019.9
20191209123805 35 181 5.0 6.0 0.00 0.00 0.00 98 1019.9
20191209123705 35 181 4.0 6.0 0.00 0.00 0.00 98 1019.9
20191209123605 35 181 4.0 6.0 0.00 0.00 0.00 98 1019.9
20191209123506 35 180 5.0 6.0 0.00 0.00 0.00 98 1019.9
20191209123405 35 176 3.0 6.0 0.00 0.00 0.00 98 1019.9
20191209123304 35 176 3.0 6.0 0.00 0.00 0.00 98 1019.9
20191209123205 35 178 4.0 6.0 0.00 0.00 0.00 98 1018.9
20191209123105 35 176 3.0 6.0 0.00 0.00 0.00 98 1018.9
20191209123005 35 176 3.0 6.0 0.00 0.00 0.00 98 1018.9
20191209122905 35 176 2.0 6.0 0.00 0.00 0.00 98 1018.9
20191209122805 35 175 3.0 6.0 0.00 0.00 0.00 98 1018.9
20191209122704 35 175 3.0 6.0 0.00 0.00 0.00 98 1018.9
20191209122604 35 177 6.0 6.0 0.00 0.00 0.00 98 1018.9
20191209122505 35 179 4.0 6.0 0.00 0.00 0.00 98 1018.9
20191209122405 35 183 4.0 5.0 0.00 0.00 0.00 98 1018.9
20191209122305 35 186 4.0 5.0 0.00 0.00 0.00 98 1018.9
20191209122205 35 185 2.0 5.0 0.00 0.00 0.00 98 1018.9
20191209122104 35 187 3.0 6.0 0.00 0.00 0.00 98 1018.9
20191209122005 35 188 2.0 6.0 0.00 0.00 0.00 98 1018.9
20191209121905 35 190 3.0 6.0 0.00 0.00 0.00 98 1018.9
20191209121805 35 191 4.0 6.0 0.00 0.00 0.00 98 1018.9
20191209121705 35 192 3.0 6.0 0.00 0.00 0.00 98 1019.9
20191209121604 35 190 3.0 6.0 0.00 0.00 0.00 98 1019.9
20191209121504 35 188 2.0 6.0 0.00 0.00 0.00 98 1019.9
20191209121405 35 184 3.0 6.0 0.00 0.00 0.00 98 1019.9
20191209121305 35 183 3.0 6.0 0.00 0.00 0.00 98 1019.9
20191209121205 35 185 4.0 6.0 0.00 0.00 0.00 98 1019.9
20191209121105 35 183 2.0 4.0 0.00 0.00 0.00 98 1019.9
20191209121006 35 182 3.0 4.0 0.00 0.00 0.00 98 1019.9
20191209120904 35 180 2.0 4.0 0.00 0.00 0.00 98 1019.9
20191209120804 35 178 2.0 4.0 0.00 0.00 0.00 98 1019.9
20191209120705 35 179 4.0 4.0 0.00 0.00 0.00 98 1019.9
20191209120605 35 181 4.0 4.0 0.00 0.00 0.00 98 1019.9
20191209120506 35 182 2.0 4.0 0.00 0.00 0.00 98 1019.9
20191209120405 35 186 2.0 4.0 0.00 0.00 0.00 98 1019.9
20191209120305 35 186 3.0 4.0 0.00 0.00 0.00 98 1019.9
20191209120205 35 187 3.0 4.0 0.00 0.00 0.00 98 1019.9
20191209120105 35 183 1.0 3.0 0.00 0.00 0.00 98 1019.9
20191209120007 35 183 2.0 5.0 0.00 0.00 0.00 98 1019.9
20191209115905 35 182 2.0 5.0 0.00 0.00 0.00 98 1019.9
20191209115804 35 182 2.0 5.0 0.00 0.00 0.00 98 1019.9
20191209115705 35 179 1.0 5.0 0.00 0.00 0.00 98 1019.9
20191209115605 35 176 2.0 5.0 0.00 0.00 0.00 98 1019.9
20191209115506 35 176 2.0 5.0 0.00 0.00 0.00 98 1019.9
20191209115405 35 175 2.0 5.0 0.00 0.00 0.00 98 1019.9
20191209115305 35 176 2.0 5.0 0.00 0.00 0.00 98 1019.9
20191209115204 35 176 1.0 5.0 0.00 0.00 0.00 98 1019.9
20191209115104 35 181 3.0 5.0 0.00 0.00 0.00 98 1019.9
20191209115005 35 182 4.0 5.0 0.00 0.00 0.00 98 1019.9
20191209114905 35 183 4.0 5.0 0.00 0.00 0.00 98 1019.9
20191209114805 35 184 4.0 5.0 0.00 0.00 0.00 98 1019.9
20191209114705 35 184 4.0 5.0 0.00 0.00 0.00 98 1019.9
20191209114604 35 184 4.0 5.0 0.00 0.00 0.00 98 1019.9
20191209114505 35 184 4.0 5.0 0.00 0.00 0.00 98 1019.9
20191209114405 35 185 4.0 5.0 0.00 0.00 0.00 98 1019.9
20191209114305 35 185 4.0 5.0 0.00 0.00 0.00 98 1019.9
20191209114205 35 185 3.0 3.0 0.00 0.00 0.00 98 1019.9
20191209114105 35 184 3.0 3.0 0.00 0.00 0.00 98 1019.9
20191209114006 35 184 3.0 3.0 0.00 0.00 0.00 98 1019.9
20191209113904 35 185 3.0 3.0 0.00 0.00 0.00 98 1019.9
20191209113805 35 184 2.0 3.0 0.00 0.00 0.00 98 1019.9
20191209113705 35 187 2.0 3.0 0.00 0.00 0.00 98 1019.9
20191209113605 35 186 2.0 4.0 0.00 0.00 0.00 98 1019.9
20191209113507 35 186 2.0 4.0 0.00 0.00 0.00 98 1019.9
20191209113404 35 186 2.0 4.0 0.00 0.00 0.00 98 1019.9
20191209113305 35 186 1.0 4.0 0.00 0.00 0.00 98 1019.9
20191209113205 34 186 1.0 4.0 0.00 0.00 0.00 98 1019.9
20191209113105 34 185 3.0 4.0 0.00 0.00 0.00 98 1019.9
20191209113005 34 185 2.0 4.0 0.00 0.00 0.00 98 1019.9
20191209112905 34 184 2.0 4.0 0.00 0.00 0.00 98 1019.9
20191209112804 35 182 2.0 4.0 0.00 0.00 0.00 98 1019.9
20191209112705 35 182 2.0 4.0 0.00 0.00 0.00 98 1019.9
20191209112605 35 184 2.0 4.0 0.00 0.00 0.00 98 1019.9
20191209112505 34 185 3.0 4.0 0.00 0.00 0.00 98 1019.9
20191209112405 34 191 3.0 4.0 0.00 0.00 0.00 98 1019.9
20191209112305 34 192 3.0 4.0 0.00 0.00 0.00 98 1019.9
20191209112204 34 190 3.0 3.0 0.00 0.00 0.00 98 1019.9
20191209112105 35 191 1.0 4.0 0.00 0.00 0.00 98 1019.9
20191209112005 35 189 1.0 5.0 0.00 0.00 0.00 98 1019.9
20191209111905 34 189 2.0 5.0 0.00 0.00 0.00 98 1019.9
20191209111805 34 192 1.0 5.0 0.00 0.00 0.00 98 1019.9
20191209111704 34 192 1.0 5.0 0.00 0.00 0.00 98 1019.9
20191209111604 34 190 2.0 5.0 0.00 0.00 0.00 98 1019.9
20191209111505 34 191 1.0 5.0 0.00 0.00 0.00 98 1019.9
20191209111405 34 191 2.0 5.0 0.00 0.00 0.00 98 1019.9
20191209111305 34 192 3.0 5.0 0.00 0.00 0.00 98 1019.9
20191209111205 34 194 3.0 5.0 0.00 0.00 0.00 98 1019.9
20191209111104 34 187 4.0 6.0 0.00 0.00 0.00 98 1019.9
20191209111005 35 188 3.0 6.0 0.00 0.00 0.00 98 1019.9
20191209110905 35 188 3.0 6.0 0.00 0.00 0.00 98 1019.9
20191209110805 35 187 1.0 6.0 0.00 0.00 0.00 98 1019.9
20191209110705 35 189 2.0 6.0 0.00 0.00 0.00 98 1019.9
20191209110605 35 189 2.0 6.0 0.00 0.00 0.00 98 1019.9
20191209110405 34 185 2.0 6.0 0.00 0.00 0.00 98 1019.9
20191209110305 34 183 4.0 6.0 0.00 0.00 0.00 98 1019.9
20191209110206 34 184 4.0 6.0 0.00 0.00 0.00 98 1019.9
20191209110106 34 188 3.0 4.0 0.00 0.00 0.00 98 1019.9
20191209110006 34 190 4.0 4.0 0.00 0.00 0.00 98 1019.9
20191209105905 34 192 3.0 4.0 0.00 0.00 0.00 98 1019.9
20191209105805 34 191 3.0 4.0 0.00 0.00 0.00 98 1019.9
20191209105705 34 185 4.0 4.0 0.00 0.00 0.00 98 1019.9
20191209105605 34 183 3.0 4.0 0.00 0.00 0.00 98 1019.9
20191209105506 34 185 3.0 4.0 0.00 0.00 0.00 98 1019.9
20191209105405 34 185 3.0 4.0 0.00 0.00 0.00 98 1019.9
20191209105305 34 185 2.0 4.0 0.00 0.00 0.00 98 1019.9
20191209105205 34 184 2.0 4.0 0.00 0.00 0.00 98 1019.9
20191209105105 34 184 2.0 4.0 0.00 0.00 0.00 98 1019.9
20191209105005 34 182 2.0 4.0 0.00 0.00 0.00 98 1019.9
20191209104905 34 182 2.0 4.0 0.00 0.00 0.00 98 1019.9
20191209104805 34 182 2.0 4.0 0.00 0.00 0.00 98 1019.9
20191209104704 34 183 2.0 4.0 0.00 0.00 0.00 98 1018.9
20191209104605 34 183 2.0 4.0 0.00 0.00 0.00 98 1018.9
20191209104505 34 185 2.0 2.0 0.00 0.00 0.00 98 1018.9
20191209104405 34 180 2.0 1.0 0.00 0.00 0.00 98 1018.9
20191209104305 34 180 2.0 1.0 0.00 0.00 0.00 98 1018.9
20191209104204 34 180 2.0 1.0 0.00 0.00 0.00 98 1018.9
20191209104105 34 180 2.0 7.0 0.00 0.00 0.00 98 1018.9
20191209104005 34 180 2.0 7.0 0.00 0.00 0.00 98 1018.9
20191209103905 34 180 2.0 7.0 0.00 0.00 0.00 98 1018.9
20191209103805 34 180 2.0 7.0 0.00 0.00 0.00 98 1018.9
20191209103705 34 180 2.0 7.0 0.00 0.00 0.00 98 1018.9
20191209103604 34 180 2.0 7.0 0.00 0.00 0.00 98 1018.9
20191209103504 34 180 2.0 7.0 0.00 0.00 0.00 98 1018.9
20191209103405 34 180 2.0 7.0 0.00 0.00 0.00 98 1018.9
20191209103305 34 180 2.0 7.0 0.00 0.00 0.00 98 1018.9
20191209103205 34 171 2.0 7.0 0.00 0.00 0.00 98 1019.9
20191209103105 34 171 2.0 7.0 0.00 0.00 0.00 98 1019.9
20191209103004 34 169 6.0 7.0 0.00 0.00 0.00 98 1019.9
20191209102904 34 169 6.0 7.0 0.00 0.00 0.00 98 1019.9
20191209102805 34 167 6.0 7.0 0.00 0.00 0.00 98 1019.9
20191209102705 34 167 6.0 7.0 0.00 0.00 0.00 98 1019.9
20191209102605 34 167 6.0 7.0 0.00 0.00 0.00 98 1019.9
20191209102507 34 167 6.0 7.0 0.00 0.00 0.00 98 1019.9
20191209102404 34 168 6.0 7.0 0.00 0.00 0.00 98 1019.9
20191209102305 34 169 6.0 7.0 0.00 0.00 0.00 98 1019.9
20191209102205 34 162 4.0 6.0 0.00 0.00 0.00 98 1019.9
20191209102105 34 171 5.0 4.0 0.00 0.00 0.00 98 1019.9
20191209102005 35 176 4.0 4.0 0.00 0.00 0.00 98 1019.9
20191209101905 34 175 4.0 4.0 0.00 0.00 0.00 98 1019.9
20191209101804 35 177 2.0 4.0 0.00 0.00 0.00 98 1019.9
20191209101704 35 179 2.0 4.0 0.00 0.00 0.00 98 1019.9
20191209101605 35 180 1.0 4.0 0.00 0.00 0.00 98 1019.9
20191209101505 34 179 2.0 4.0 0.00 0.00 0.00 98 1019.9
20191209101405 34 179 3.0 5.0 0.00 0.00 0.00 98 1019.9
20191209101305 35 179 3.0 5.0 0.00 0.00 0.00 98 1019.9
20191209101204 34 186 2.0 5.0 0.00 0.00 0.00 98 1019.9
20191209101105 34 186 3.0 5.0 0.00 0.00 0.00 98 1019.9
20191209101005 34 184 2.0 6.0 0.00 0.00 0.00 98 1019.9
20191209100905 34 184 2.0 6.0 0.00 0.00 0.00 98 1019.9
20191209100805 34 184 2.0 6.0 0.00 0.00 0.00 98 1019.9
20191209100704 34 183 2.0 6.0 0.00 0.00 0.00 98 1019.9
20191209100604 34 181 4.0 6.0 0.00 0.00 0.00 98 1019.9
20191209100504 34 181 4.0 6.0 0.00 0.00 0.00 98 1019.9
20191209100405 35 181 3.0 6.0 0.00 0.00 0.00 98 1019.9
20191209100305 35 182 1.0 6.0 0.00 0.00 0.00 98 1019.9
20191209100205 35 182 3.0 6.0 0.00 0.00 0.00 98 1019.9
20191209100104 34 180 5.0 6.0 0.00 0.00 0.00 98 1019.9
20191209100004 34 180 5.0 6.0 0.00 0.00 0.00 98 1019.9
20191209095905 34 189 7.0 6.0 0.00 0.00 0.00 98 1019.9
20191209095805 35 199 3.0 3.0 0.00 0.00 0.00 98 1019.9
20191209095705 35 199 3.0 3.0 0.00 0.00 0.00 98 1019.9
20191209095605 35 194 3.0 3.0 0.00 0.00 0.00 98 1019.9
20191209095505 35 193 3.0 3.0 0.00 0.00 0.00 98 1019.9
20191209095404 35 191 3.0 3.0 0.00 0.00 0.00 98 1019.9
20191209095305 35 191 3.0 3.0 0.00 0.00 0.00 98 1019.9
20191209095205 35 190 3.0 3.0 0.00 0.00 0.00 98 1019.9
20191209095105 35 188 3.0 3.0 0.00 0.00 0.00 98 1019.9
20191209095007 35 184 3.0 3.0 0.00 0.00 0.00 98 1019.9
20191209094904 35 182 2.0 3.0 0.00 0.00 0.00 98 1019.9
20191209094804 35 180 2.0 4.0 0.00 0.00 0.00 98 1019.9
20191209094705 35 176 3.0 4.0 0.00 0.00 0.00 98 1019.9
20191209094605 35 177 3.0 4.0 0.00 0.00 0.00 98 1019.9
20191209094506 35 177 3.0 4.0 0.00 0.00 0.00 98 1019.9
20191209094405 35 177 1.0 4.0 0.00 0.00 0.00 98 1019.9
20191209094305 35 177 2.0 4.0 0.00 0.00 0.00 98 1019.9
20191209094205 35 177 1.0 4.0 0.00 0.00 0.00 98 1019.9
20191209094105 35 178 1.0 4.0 0.00 0.00 0.00 98 1019.9
20191209094005 35 182 3.0 4.0 0.00 0.00 0.00 98 1019.9
20191209093905 35 184 3.0 4.0 0.00 0.00 0.00 98 1019.9
20191209093805 35 185 3.0 4.0 0.00 0.00 0.00 98 1019.9
20191209093704 35 191 2.0 4.0 0.00 0.00 0.00 98 1019.9
20191209093605 35 192 2.0 4.0 0.00 0.00 0.00 98 1019.9
20191209093505 35 193 1.0 4.0 0.00 0.00 0.00 98 1019.9
20191209093405 35 190 2.0 5.0 0.00 0.00 0.00 98 1019.9
20191209093305 35 185 3.0 5.0 0.00 0.00 0.00 98 1019.9
20191209093206 35 183 3.0 5.0 0.00 0.00 0.00 98 1018.9
20191209093104 35 182 2.0 5.0 0.00 0.00 0.00 98 1018.9
20191209093005 35 185 1.0 5.0 0.00 0.00 0.00 98 1018.9
20191209092905 35 185 2.0 5.0 0.00 0.00 0.00 98 1018.9
20191209092805 35 186 1.0 5.0 0.00 0.00 0.00 98 1018.9
20191209092705 35 187 1.0 5.0 0.00 0.00 0.00 98 1018.9
20191209092604 35 185 2.0 5.0 0.00 0.00 0.00 98 1018.9
20191209092504 35 185 3.0 5.0 0.00 0.00 0.00 98 1018.9
20191209092405 35 187 4.0 5.0 0.00 0.00 0.00 98 1018.9
20191209092305 35 190 3.0 4.0 0.00 0.00 0.00 98 1018.9
20191209092206 35 191 3.0 4.0 0.00 0.00 0.00 98 1018.9
20191209092105 35 193 2.0 4.0 0.00 0.00 0.00 98 1018.9
20191209092004 35 193 2.0 4.0 0.00 0.00 0.00 98 1018.9
20191209091904 35 189 2.0 4.0 0.00 0.00 0.00 98 1018.9
20191209091805 35 187 2.0 4.0 0.00 0.00 0.00 98 1018.9
20191209091705 35 184 2.0 4.0 0.00 0.00 0.00 98 1019.9
20191209091513 35 182 4.0 4.0 0.00 0.00 0.00 98 1019.9
20191209091404 35 179 3.0 4.0 0.00 0.00 0.00 98 1019.9
20191209091304 35 179 3.0 4.0 0.00 0.00 0.00 98 1019.9
20191209091205 35 181 3.0 4.0 0.00 0.00 0.00 98 1019.9
20191209091105 35 183 2.0 4.0 0.00 0.00 0.00 98 1019.9
20191209091005 35 183 2.0 4.0 0.00 0.00 0.00 98 1019.9
20191209090905 35 183 3.0 4.0 0.00 0.00 0.00 98 1019.9
20191209090804 35 184 3.0 4.0 0.00 0.00 0.00 98 1019.9
20191209090704 35 188 3.0 4.0 0.00 0.00 0.00 98 1019.9
20191209090605 35 194 2.0 4.0 0.00 0.00 0.00 98 1019.9
20191209090505 35 198 2.0 4.0 0.00 0.00 0.00 98 1019.9
20191209090405 35 208 3.0 5.0 0.00 0.00 0.00 98 1019.9
20191209090305 35 213 1.0 5.0 0.00 0.00 0.00 98 1019.9
20191209090204 35 214 1.0 5.0 0.00 0.00 0.00 98 1019.9
20191209090104 35 211 0.0 5.0 0.00 0.00 0.00 98 1019.9
20191209090005 35 209 1.0 5.0 0.00 0.00 0.00 98 1019.9
20191209085905 35 212 1.0 5.0 0.00 0.00 0.00 98 1019.9
20191209085805 35 214 2.0 5.0 0.00 0.00 0.00 98 1019.9
20191209085705 35 213 2.0 5.0 0.00 0.00 0.00 98 1019.9
20191209085605 35 209 3.0 5.0 0.00 0.00 0.00 98 1019.9
20191209085504 35 208 3.0 5.0 0.00 0.00 0.00 98 1019.9
20191209085405 35 207 2.0 3.0 0.00 0.00 0.00 98 1019.9
20191209085306 35 203 2.0 3.0 0.00 0.00 0.00 98 1019.9
20191209085205 35 202 2.0 2.0 0.00 0.00 0.00 98 1019.9
20191209085104 35 206 2.0 2.0 0.00 0.00 0.00 98 1019.9
20191209085004 35 211 2.0 2.0 0.00 0.00 0.00 98 1019.9
20191209084904 35 207 1.0 2.0 0.00 0.00 0.00 98 1019.9
20191209084805 35 205 2.0 2.0 0.00 0.00 0.00 98 1019.9
20191209084705 35 204 2.0 2.0 0.00 0.00 0.00 98 1019.9
20191209084605 35 207 2.0 2.0 0.00 0.00 0.00 98 1019.9
20191209084505 35 209 2.0 2.0 0.00 0.00 0.00 98 1019.9
20191209084404 35 210 2.0 2.0 0.00 0.00 0.00 98 1019.9
20191209084305 35 217 1.0 3.0 0.00 0.00 0.00 98 1018.9
20191209084205 35 220 2.0 3.0 0.00 0.00 0.00 98 1018.9
20191209084105 35 220 1.0 3.0 0.00 0.00 0.00 98 1018.9
20191209084005 35 221 1.0 3.0 0.00 0.00 0.00 98 1018.9
20191209083904 35 223 1.0 4.0 0.00 0.00 0.00 98 1018.9
20191209083804 35 224 1.0 4.0 0.00 0.00 0.00 98 1018.9
20191209083705 35 228 1.0 4.0 0.00 0.00 0.00 98 1018.9
20191209083605 34 226 2.0 4.0 0.00 0.00 0.00 98 1018.9
20191209083506 35 221 2.0 4.0 0.00 0.00 0.00 98 1018.9
20191209083405 35 225 2.0 4.0 0.00 0.00 0.00 98 1018.9
20191209083304 34 227 1.0 4.0 0.00 0.00 0.00 98 1018.9
20191209083205 34 225 2.0 4.0 0.00 0.00 0.00 98 1018.9
20191209083105 35 224 2.0 4.0 0.00 0.00 0.00 98 1018.9
20191209083005 35 224 2.0 4.0 0.00 0.00 0.00 98 1018.9
20191209082905 35 221 2.0 4.0 0.00 0.00 0.00 98 1018.9
20191209082805 34 215 2.0 6.0 0.00 0.00 0.00 98 1018.9
20191209082704 34 208 1.0 6.0 0.00 0.00 0.00 98 1018.9
20191209082604 34 211 2.0 6.0 0.00 0.00 0.00 98 1018.9
20191209082505 34 212 3.0 6.0 0.00 0.00 0.00 98 1018.9
20191209082405 34 204 2.0 6.0 0.00 0.00 0.00 98 1018.9
20191209082305 34 194 2.0 6.0 0.00 0.00 0.00 98 1018.9
20191209082205 34 183 2.0 6.0 0.00 0.00 0.00 98 1018.9
20191209082104 34 181 4.0 6.0 0.00 0.00 0.00 98 1018.9
20191209082006 34 173 4.0 6.0 0.00 0.00 0.00 98 1018.9
20191209081905 34 179 3.0 6.0 0.00 0.00 0.00 98 1018.9
20191209081805 34 180 3.0 6.0 0.00 0.00 0.00 98 1019.9
20191209081705 34 177 4.0 6.0 0.00 0.00 0.00 98 1019.9
20191209081604 34 175 4.0 6.0 0.00 0.00 0.00 98 1019.9
20191209081505 34 179 5.0 6.0 0.00 0.00 0.00 98 1019.9
20191209081404 34 179 2.0 5.0 0.00 0.00 0.00 98 1019.9
20191209081305 34 180 3.0 5.0 0.00 0.00 0.00 98 1019.9
20191209081205 34 189 1.0 5.0 0.00 0.00 0.00 98 1019.9
20191209081105 34 192 2.0 5.0 0.00 0.00 0.00 98 1019.9
20191209081004 34 189 3.0 5.0 0.00 0.00 0.00 98 1019.9
20191209080904 34 186 3.0 5.0 0.00 0.00 0.00 98 1019.9
20191209080805 34 186 3.0 5.0 0.00 0.00 0.00 98 1019.9
20191209080705 34 194 2.0 5.0 0.00 0.00 0.00 98 1019.9
20191209080605 34 199 3.0 6.0 0.00 0.00 0.00 98 1019.9
20191209080505 34 196 3.0 6.0 0.00 0.00 0.00 98 1019.9
20191209080405 34 193 3.0 6.0 0.00 0.00 0.00 98 1019.9
20191209080304 34 191 3.0 6.0 0.00 0.00 0.00 98 1019.9
20191209080205 34 192 3.0 6.0 0.00 0.00 0.00 98 1019.9
20191209080105 34 191 3.0 6.0 0.00 0.00 0.00 98 1019.9
20191209080007 34 191 2.0 6.0 0.00 0.00 0.00 98 1019.9
20191209075906 34 193 2.0 6.0 0.00 0.00 0.00 98 1019.9
20191209075805 34 195 3.0 6.0 0.00 0.00 0.00 98 1019.9
20191209075704 34 191 3.0 6.0 0.00 0.00 0.00 98 1019.9
20191209075607 34 189 3.0 5.0 0.00 0.00 0.00 98 1019.9
20191209075506 34 188 3.0 5.0 0.00 0.00 0.00 98 1019.9
20191209075405 34 187 2.0 5.0 0.00 0.00 0.00 98 1019.9
20191209075305 34 186 2.0 6.0 0.00 0.00 0.00 98 1019.9
20191209075204 34 187 4.0 6.0 0.00 0.00 0.00 98 1019.9
20191209075105 34 189 2.0 6.0 0.00 0.00 0.00 98 1019.9
20191209075006 34 193 2.0 6.0 0.00 0.00 0.00 98 1019.9
20191209074905 34 194 2.0 6.0 0.00 0.00 0.00 98 1019.9
20191209074805 34 190 3.0 9.0 0.00 0.00 0.00 98 1019.9
20191209074705 34 190 3.0 9.0 0.00 0.00 0.00 98 1019.9
20191209074604 34 189 3.0 9.0 0.00 0.00 0.00 98 1019.9
20191209074506 34 188 4.0 9.0 0.00 0.00 0.00 98 1019.9
20191209074405 34 188 4.0 9.0 0.00 0.00 0.00 98 1019.9
20191209074305 34 193 2.0 9.0 0.00 0.00 0.00 98 1019.9
20191209074205 34 192 2.0 9.0 0.00 0.00 0.00 98 1019.9
20191209074105 34 189 3.0 9.0 0.00 0.00 0.00 98 1019.9
20191209074004 34 188 6.0 9.0 0.00 0.00 0.00 98 1019.9
20191209073904 34 182 4.0 9.0 0.00 0.00 0.00 98 1019.9
20191209073805 34 184 4.0 6.0 0.00 0.00 0.00 98 1019.9
20191209073705 34 188 4.0 6.0 0.00 0.00 0.00 98 1019.9
20191209073605 34 192 4.0 6.0 0.00 0.00 0.00 98 1019.9
20191209073504 34 194 3.0 6.0 0.00 0.00 0.00 98 1019.9
20191209073404 34 197 3.0 3.0 0.00 0.00 0.00 98 1019.9
20191209073304 34 185 2.0 6.0 0.00 0.00 0.00 98 1019.9
20191209073205 34 184 4.0 6.0 0.00 0.00 0.00 98 1019.9
20191209073105 34 183 1.0 6.0 0.00 0.00 0.00 98 1019.9
20191209073005 34 181 1.0 6.0 0.00 0.00 0.00 98 1019.9
20191209072906 34 166 2.0 9.0 0.00 0.00 0.00 98 1019.9
20191209072804 34 167 2.0 9.0 0.00 0.00 0.00 98 1019.9
20191209072705 34 167 1.0 9.0 0.00 0.00 0.00 98 1019.9
20191209072605 34 166 3.0 9.0 0.00 0.00 0.00 98 1019.9
20191209072505 34 169 3.0 9.0 0.00 0.00 0.00 98 1019.9
20191209072405 34 172 3.0 9.0 0.00 0.00 0.00 98 1019.9
20191209072306 34 177 4.0 9.0 0.00 0.00 0.00 98 1019.9
20191209072205 34 179 4.0 9.0 0.00 0.00 0.00 98 1019.9
20191209072104 34 179 6.0 9.0 0.00 0.00 0.00 98 1019.9
20191209072005 34 174 6.0 9.0 0.00 0.00 0.00 98 1019.9
20191209071905 34 184 4.0 6.0 0.00 0.00 0.00 98 1019.9
20191209071805 34 187 4.0 6.0 0.00 0.00 0.00 98 1019.9
20191209071704 34 184 4.0 6.0 0.00 0.00 0.00 98 1019.9
20191209071604 34 183 2.0 6.0 0.00 0.00 0.00 98 1019.9
20191209071505 34 177 3.0 6.0 0.00 0.00 0.00 98 1019.9
20191209071405 34 177 3.0 6.0 0.00 0.00 0.00 98 1019.9
20191209071305 34 173 5.0 6.0 0.00 0.00 0.00 98 1019.9
20191209071205 34 171 5.0 6.0 0.00 0.00 0.00 98 1019.9
20191209071104 34 171 5.0 6.0 0.00 0.00 0.00 98 1019.9
20191209071005 34 180 4.0 6.0 0.00 0.00 0.00 98 1019.9
20191209070905 34 181 4.0 6.0 0.00 0.00 0.00 98 1019.9
20191209070805 34 181 4.0 6.0 0.00 0.00 0.00 98 1019.9
20191209070705 34 181 4.0 6.0 0.00 0.00 0.00 98 1019.9
20191209070605 34 181 3.0 6.0 0.00 0.00 0.00 98 1019.9
20191209070504 34 183 2.0 6.0 0.00 0.00 0.00 98 1019.9
20191209070404 34 186 4.0 6.0 0.00 0.00 0.00 98 1019.9
20191209070305 34 186 4.0 6.0 0.00 0.00 0.00 98 1019.9
20191209070205 34 186 4.0 6.0 0.00 0.00 0.00 98 1019.9
20191209070105 34 189 4.0 6.0 0.00 0.00 0.00 98 1019.9
20191209070004 34 185 3.0 6.0 0.00 0.00 0.00 98 1019.9
20191209065904 34 183 5.0 6.0 0.00 0.00 0.00 98 1019.9
20191209065805 34 184 2.0 6.0 0.00 0.00 0.00 98 1019.9
20191209065705 34 185 2.0 6.0 0.00 0.00 0.00 98 1019.9
20191209065605 34 186 4.0 6.0 0.00 0.00 0.00 98 1019.9
20191209065506 34 189 5.0 4.0 0.00 0.00 0.00 98 1019.9
20191209065404 34 183 5.0 4.0 0.00 0.00 0.00 98 1019.9
20191209065304 34 187 3.0 4.0 0.00 0.00 0.00 98 1019.9
20191209065205 34 187 3.0 4.0 0.00 0.00 0.00 98 1019.9
20191209065105 34 186 3.0 4.0 0.00 0.00 0.00 98 1019.9
20191209065006 34 185 4.0 4.0 0.00 0.00 0.00 98 1019.9
20191209064905 34 185 4.0 4.0 0.00 0.00 0.00 98 1019.9
20191209064804 34 185 1.0 4.0 0.00 0.00 0.00 98 1019.9
20191209064704 34 185 1.0 4.0 0.00 0.00 0.00 98 1019.9
20191209064604 34 186 1.0 4.0 0.00 0.00 0.00 98 1019.9
20191209064506 34 187 3.0 4.0 0.00 0.00 0.00 98 1019.9
20191209064405 34 187 2.0 4.0 0.00 0.00 0.00 98 1019.9
20191209064305 34 188 3.0 4.0 0.00 0.00 0.00 98 1019.9
20191209064204 34 185 4.0 4.0 0.00 0.00 0.00 98 1019.9
20191209064105 34 185 4.0 4.0 0.00 0.00 0.00 98 1019.9
20191209064006 34 187 3.0 4.0 0.00 0.00 0.00 98 1019.9
20191209063905 34 190 3.0 4.0 0.00 0.00 0.00 98 1019.9
20191209063805 34 194 2.0 4.0 0.00 0.00 0.00 98 1019.9
20191209063705 34 194 2.0 4.0 0.00 0.00 0.00 98 1019.9
20191209063604 34 193 4.0 4.0 0.00 0.00 0.00 98 1019.9
20191209063505 34 193 4.0 4.0 0.00 0.00 0.00 98 1019.9
20191209063405 34 196 2.0 3.0 0.00 0.00 0.00 98 1019.9
20191209063305 34 197 2.0 3.0 0.00 0.00 0.00 98 1019.9
20191209063205 34 201 1.0 3.0 0.00 0.00 0.00 98 1018.9
20191209063105 34 200 2.0 3.0 0.00 0.00 0.00 98 1018.9
20191209063004 34 196 1.0 3.0 0.00 0.00 0.00 98 1018.9
20191209062904 34 192 0.0 4.0 0.00 0.00 0.00 98 1018.9
20191209062805 34 189 0.0 4.0 0.00 0.00 0.00 98 1018.9
20191209062705 34 188 1.0 4.0 0.00 0.00 0.00 98 1018.9
20191209062605 34 186 1.0 4.0 0.00 0.00 0.00 98 1018.9
20191209062504 34 178 2.0 4.0 0.00 0.00 0.00 98 1018.9
20191209062404 34 177 1.0 4.0 0.00 0.00 0.00 98 1018.9
20191209062305 34 179 2.0 4.0 0.00 0.00 0.00 98 1018.9
20191209062205 34 178 2.0 4.0 0.00 0.00 0.00 98 1018.9
20191209062105 34 180 3.0 4.0 0.00 0.00 0.00 98 1018.9
20191209062006 34 181 3.0 4.0 0.00 0.00 0.00 98 1018.9
20191209061906 34 181 4.0 5.0 0.00 0.00 0.00 98 1018.9
20191209061804 34 181 3.0 5.0 0.00 0.00 0.00 98 1018.9
20191209061704 34 177 4.0 5.0 0.00 0.00 0.00 98 1019.9
20191209061605 34 172 4.0 5.0 0.00 0.00 0.00 98 1019.9
20191209061505 34 173 2.0 5.0 0.00 0.00 0.00 98 1019.9
20191209061405 34 175 2.0 5.0 0.00 0.00 0.00 98 1019.9
20191209061304 34 168 2.0 5.0 0.00 0.00 0.00 98 1019.9
20191209061205 34 168 2.0 5.0 0.00 0.00 0.00 98 1019.9
20191209061105 34 167 4.0 5.0 0.00 0.00 0.00 98 1019.9
20191209061006 34 166 3.0 5.0 0.00 0.00 0.00 98 1019.9
20191209060905 34 167 3.0 5.0 0.00 0.00 0.00 98 1019.9
20191209060805 34 167 3.0 5.0 0.00 0.00 0.00 98 1019.9
20191209060704 34 170 3.0 5.0 0.00 0.00 0.00 98 1019.9
20191209060605 34 176 4.0 5.0 0.00 0.00 0.00 98 1019.9
20191209060505 34 179 3.0 5.0 0.00 0.00 0.00 98 1019.9
20191209060405 34 182 3.0 4.0 0.00 0.00 0.00 98 1019.9
20191209060305 34 189 2.0 4.0 0.00 0.00 0.00 98 1019.9
20191209060205 34 195 2.0 5.0 0.00 0.00 0.00 98 1018.9
20191209060104 34 195 2.0 5.0 0.00 0.00 0.00 98 1018.9
20191209060004 34 196 2.0 5.0 0.00 0.00 0.00 98 1018.9
20191209055905 34 190 2.0 5.0 0.00 0.00 0.00 98 1018.9
20191209055805 34 187 1.0 5.0 0.00 0.00 0.00 98 1018.9
20191209055705 34 187 3.0 5.0 0.00 0.00 0.00 98 1018.9
20191209055605 34 183 4.0 5.0 0.00 0.00 0.00 98 1018.9
20191209055504 34 173 4.0 6.0 0.00 0.00 0.00 98 1018.9
20191209055404 34 171 3.0 6.0 0.00 0.00 0.00 98 1018.9
20191209055305 34 167 3.0 6.0 0.00 0.00 0.00 98 1018.9
20191209055205 34 166 2.0 6.0 0.00 0.00 0.00 98 1018.9
20191209055105 34 165 3.0 6.0 0.00 0.00 0.00 98 1018.9
20191209055005 34 165 3.0 6.0 0.00 0.00 0.00 98 1018.9
20191209054904 34 166 3.0 6.0 0.00 0.00 0.00 98 1018.9
20191209054804 34 165 2.0 6.0 0.00 0.00 0.00 98 1018.9
20191209054704 34 165 4.0 6.0 0.00 0.00 0.00 98 1018.9
20191209054605 34 165 4.0 6.0 0.00 0.00 0.00 98 1018.9
20191209054506 34 166 4.0 6.0 0.00 0.00 0.00 98 1018.9
20191209054404 34 168 4.0 6.0 0.00 0.00 0.00 98 1018.9
20191209054304 34 172 4.0 6.0 0.00 0.00 0.00 98 1018.9
20191209054205 34 165 3.0 4.0 0.00 0.00 0.00 98 1018.9
20191209054105 34 161 1.0 4.0 0.00 0.00 0.00 98 1018.9
20191209054005 34 156 1.0 4.0 0.00 0.00 0.00 98 1018.9
20191209053905 34 155 1.0 4.0 0.00 0.00 0.00 98 1018.9
20191209053804 34 156 2.0 4.0 0.00 0.00 0.00 98 1018.9
20191209053704 34 154 3.0 4.0 0.00 0.00 0.00 98 1018.9
20191209053605 34 154 3.0 4.0 0.00 0.00 0.00 98 1018.9
20191209053505 34 160 3.0 4.0 0.00 0.00 0.00 98 1018.9
20191209053405 34 163 3.0 4.0 0.00 0.00 0.00 98 1018.9
20191209053305 34 163 3.0 4.0 0.00 0.00 0.00 98 1018.9
20191209053204 34 167 3.0 3.0 0.00 0.00 0.00 98 1018.9
20191209053104 34 169 2.0 3.0 0.00 0.00 0.00 98 1018.9
20191209053006 34 174 2.0 3.0 0.00 0.00 0.00 98 1018.9
20191209052905 34 173 2.0 3.0 0.00 0.00 0.00 98 1018.9
20191209052805 34 172 2.0 3.0 0.00 0.00 0.00 98 1018.9
20191209052705 34 178 3.0 3.0 0.00 0.00 0.00 98 1018.9
20191209052604 34 178 2.0 3.0 0.00 0.00 0.00 98 1018.9
20191209052509 34 178 2.0 2.0 0.00 0.00 0.00 98 1018.9
20191209052405 34 178 1.0 3.0 0.00 0.00 0.00 98 1018.9
20191209052305 34 178 1.0 3.0 0.00 0.00 0.00 98 1018.9
20191209052205 34 178 0.0 3.0 0.00 0.00 0.00 98 1018.9
20191209052105 34 175 1.0 3.0 0.00 0.00 0.00 98 1018.9
20191209052004 34 171 1.0 3.0 0.00 0.00 0.00 98 1018.9
20191209051904 34 172 1.0 3.0 0.00 0.00 0.00 98 1018.9
20191209051805 34 175 1.0 3.0 0.00 0.00 0.00 98 1018.9
20191209051705 34 174 1.0 3.0 0.00 0.00 0.00 98 1017.9
20191209051605 34 175 2.0 3.0 0.00 0.00 0.00 98 1017.9
20191209051504 34 177 3.0 3.0 0.00 0.00 0.00 98 1017.9
20191209051404 34 179 2.0 3.0 0.00 0.00 0.00 98 1017.9
20191209051304 34 182 1.0 3.0 0.00 0.00 0.00 98 1017.9
20191209051205 34 184 2.0 3.0 0.00 0.00 0.00 98 1017.9
20191209051105 34 191 2.0 3.0 0.00 0.00 0.00 98 1017.9
20191209051006 34 204 1.0 3.0 0.00 0.00 0.00 98 1017.9
20191209050904 34 209 0.0 3.0 0.00 0.00 0.00 98 1017.9
20191209050805 34 208 1.0 3.0 0.00 0.00 0.00 98 1017.9
20191209050705 34 208 2.0 3.0 0.00 0.00 0.00 98 1017.9
20191209050605 34 205 2.0 3.0 0.00 0.00 0.00 98 1017.9
20191209050506 34 201 1.0 4.0 0.00 0.00 0.00 98 1017.9
20191209050405 34 197 1.0 4.0 0.00 0.00 0.00 98 1017.9
20191209050304 34 194 1.0 4.0 0.00 0.00 0.00 98 1017.9
20191209050204 34 192 1.0 4.0 0.00 0.00 0.00 98 1017.9
20191209050104 34 190 2.0 4.0 0.00 0.00 0.00 98 1017.9
20191209050006 34 191 1.0 4.0 0.00 0.00 0.00 98 1017.9
20191209045905 34 191 1.0 4.0 0.00 0.00 0.00 98 1017.9
20191209045805 34 194 2.0 4.0 0.00 0.00 0.00 98 1017.9
20191209045704 34 192 2.0 4.0 0.00 0.00 0.00 98 1017.9
20191209045604 34 193 2.0 4.0 0.00 0.00 0.00 98 1017.9
20191209045505 34 197 2.0 4.0 0.00 0.00 0.00 98 1017.9
20191209045405 34 202 1.0 4.0 0.00 0.00 0.00 98 1017.9
20191209045305 34 200 1.0 4.0 0.00 0.00 0.00 98 1017.9
20191209045205 34 199 1.0 4.0 0.00 0.00 0.00 98 1017.9
20191209045104 34 199 2.0 4.0 0.00 0.00 0.00 98 1017.9
20191209045006 34 196 2.0 4.0 0.00 0.00 0.00 98 1017.9
20191209044904 34 191 1.0 4.0 0.00 0.00 0.00 98 1017.9
20191209044805 34 190 2.0 4.0 0.00 0.00 0.00 98 1017.9
20191209044706 34 191 2.0 4.0 0.00 0.00 0.00 98 1017.9
20191209044605 34 197 4.0 4.0 0.00 0.00 0.00 98 1017.9
20191209044504 34 195 4.0 4.0 0.00 0.00 0.00 98 1017.9
20191209044404 34 191 3.0 4.0 0.00 0.00 0.00 98 1017.9
20191209044304 34 194 2.0 4.0 0.00 0.00 0.00 98 1017.9
20191209044205 34 197 2.0 4.0 0.00 0.00 0.00 98 1017.9
20191209044105 34 198 4.0 4.0 0.00 0.00 0.00 98 1017.9
20191209044005 34 202 2.0 4.0 0.00 0.00 0.00 98 1017.9
20191209043904 34 205 1.0 4.0 0.00 0.00 0.00 98 1017.9
20191209043804 34 205 2.0 5.0 0.00 0.00 0.00 98 1017.9
20191209043705 34 206 2.0 5.0 0.00 0.00 0.00 98 1017.9
20191209043605 34 208 2.0 5.0 0.00 0.00 0.00 98 1017.9
20191209043506 34 206 3.0 5.0 0.00 0.00 0.00 98 1017.9
20191209043404 34 207 3.0 5.0 0.00 0.00 0.00 98 1017.9
20191209043304 34 211 3.0 5.0 0.00 0.00 0.00 98 1017.9
20191209043204 34 213 2.0 5.0 0.00 0.00 0.00 98 1017.9
20191209043105 34 212 3.0 5.0 0.00 0.00 0.00 98 1017.9
20191209043006 34 210 3.0 5.0 0.00 0.00 0.00 98 1017.9
20191209042905 34 212 4.0 5.0 0.00 0.00 0.00 98 1017.9
20191209042804 34 215 2.0 5.0 0.00 0.00 0.00 98 1017.9
20191209042704 34 215 2.0 5.0 0.00 0.00 0.00 98 1017.9
20191209042605 34 215 2.0 5.0 0.00 0.00 0.00 98 1017.9
20191209042505 34 210 3.0 5.0 0.00 0.00 0.00 98 1017.9
20191209042405 34 210 4.0 5.0 0.00 0.00 0.00 98 1017.9
20191209042305 34 207 2.0 5.0 0.00 0.00 0.00 98 1017.9
20191209042204 34 199 2.0 4.0 0.00 0.00 0.00 98 1017.9
20191209042104 34 202 2.0 4.0 0.00 0.00 0.00 98 1017.9
20191209042005 34 205 3.0 4.0 0.00 0.00 0.00 98 1017.9
20191209041905 34 203 3.0 6.0 0.00 0.00 0.00 98 1017.9
20191209041805 34 199 1.0 6.0 0.00 0.00 0.00 98 1017.9
20191209041705 34 194 2.0 6.0 0.00 0.00 0.00 98 1017.9
20191209041604 34 191 3.0 6.0 0.00 0.00 0.00 98 1017.9
20191209041504 34 192 2.0 6.0 0.00 0.00 0.00 98 1017.9
20191209041405 34 190 1.0 6.0 0.00 0.00 0.00 98 1017.9
20191209041305 34 187 1.0 8.0 0.00 0.00 0.00 98 1017.9
20191209041205 34 190 3.0 8.0 0.00 0.00 0.00 98 1017.9
20191209041105 34 190 3.0 8.0 0.00 0.00 0.00 98 1017.9
20191209041004 34 188 4.0 8.0 0.00 0.00 0.00 98 1017.9
20191209040904 34 187 3.0 8.0 0.00 0.00 0.00 98 1017.9
20191209040804 34 188 3.0 8.0 0.00 0.00 0.00 98 1017.9
20191209040705 34 195 3.0 8.0 0.00 0.00 0.00 98 1017.9
20191209040605 34 203 3.0 8.0 0.00 0.00 0.00 98 1017.9
20191209040505 34 207 4.0 8.0 0.00 0.00 0.00 98 1017.9
20191209040404 34 208 7.0 11.0 0.00 0.00 0.00 98 1017.9
20191209040304 34 211 4.0 11.0 0.00 0.00 0.00 98 1017.9
20191209040205 34 212 4.0 11.0 0.00 0.00 0.00 98 1016.9
20191209040105 34 211 4.0 11.0 0.00 0.00 0.00 98 1016.9
20191209040005 34 212 4.0 11.0 0.00 0.00 0.00 98 1016.9
20191209035904 34 207 4.0 11.0 0.00 0.00 0.00 98 1016.9
20191209035804 34 202 4.0 11.0 0.00 0.00 0.00 98 1016.9
20191209035704 34 200 3.0 11.0 0.00 0.00 0.00 98 1016.9
20191209035605 34 196 5.0 11.0 0.00 0.00 0.00 98 1016.9
20191209035505 34 194 5.0 11.0 0.00 0.00 0.00 98 1016.9
20191209035405 34 191 4.0 6.0 0.00 0.00 0.00 98 1016.9
20191209035304 34 185 4.0 6.0 0.00 0.00 0.00 98 1016.9
20191209035204 34 181 2.0 5.0 0.00 0.00 0.00 98 1016.9
20191209035104 34 181 2.0 5.0 0.00 0.00 0.00 98 1016.9
20191209035005 34 180 4.0 5.0 0.00 0.00 0.00 98 1016.9
20191209034905 34 176 3.0 6.0 0.00 0.00 0.00 98 1016.9
20191209034805 34 185 2.0 6.0 0.00 0.00 0.00 98 1016.9
20191209034704 34 193 2.0 6.0 0.00 0.00 0.00 98 1016.9
20191209034604 34 195 2.0 6.0 0.00 0.00 0.00 98 1016.9
20191209034504 34 195 4.0 6.0 0.00 0.00 0.00 98 1016.9
20191209034405 34 195 2.0 6.0 0.00 0.00 0.00 98 1016.9
20191209034305 34 198 2.0 6.0 0.00 0.00 0.00 98 1016.9
20191209034205 34 197 2.0 6.0 0.00 0.00 0.00 98 1016.9
20191209034104 34 196 4.0 6.0 0.00 0.00 0.00 98 1016.9
20191209034004 34 191 3.0 6.0 0.00 0.00 0.00 98 1016.9
20191209033904 34 198 4.0 6.0 0.00 0.00 0.00 98 1016.9
20191209033805 34 190 4.0 7.0 0.00 0.00 0.00 98 1016.9
20191209033705 34 185 3.0 7.0 0.00 0.00 0.00 98 1016.9
20191209033605 34 179 2.0 7.0 0.00 0.00 0.00 98 1016.9
20191209033504 34 179 3.0 7.0 0.00 0.00 0.00 98 1016.9
20191209033404 34 178 3.0 7.0 0.00 0.00 0.00 98 1016.9
20191209033304 34 176 3.0 7.0 0.00 0.00 0.00 98 1016.9
20191209033205 34 175 5.0 7.0 0.00 0.00 0.00 98 1017.9
20191209033105 34 175 3.0 7.0 0.00 0.00 0.00 98 1017.9
20191209033005 34 177 4.0 7.0 0.00 0.00 0.00 98 1017.9
20191209032904 34 176 5.0 7.0 0.00 0.00 0.00 98 1017.9
20191209032804 34 183 4.0 7.0 0.00 0.00 0.00 98 1017.9
20191209032704 34 187 5.0 7.0 0.00 0.00 0.00 98 1017.9
20191209032605 34 192 3.0 7.0 0.00 0.00 0.00 98 1017.9
20191209032505 34 192 3.0 7.0 0.00 0.00 0.00 98 1017.9
20191209032404 34 195 3.0 6.0 0.00 0.00 0.00 98 1017.9
20191209032304 34 197 1.0 6.0 0.00 0.00 0.00 98 1017.9
20191209032204 34 200 3.0 6.0 0.00 0.00 0.00 98 1017.9
20191209032104 34 200 1.0 6.0 0.00 0.00 0.00 98 1017.9
20191209032005 34 198 1.0 6.0 0.00 0.00 0.00 98 1017.9
20191209031905 34 193 3.0 6.0 0.00 0.00 0.00 98 1017.9
20191209031804 34 190 3.0 6.0 0.00 0.00 0.00 98 1017.9
20191209031704 34 188 3.0 5.0 0.00 0.00 0.00 98 1017.9
20191209031604 34 188 3.0 5.0 0.00 0.00 0.00 98 1017.9
20191209031505 34 191 2.0 5.0 0.00 0.00 0.00 98 1017.9
20191209031405 34 192 2.0 5.0 0.00 0.00 0.00 98 1017.9
20191209031305 34 193 2.0 5.0 0.00 0.00 0.00 98 1017.9
20191209031204 34 185 3.0 5.0 0.00 0.00 0.00 98 1017.9
20191209031105 34 183 2.0 6.0 0.00 0.00 0.00 98 1017.9
20191209031005 34 184 3.0 6.0 0.00 0.00 0.00 98 1017.9
20191209030905 34 184 3.0 6.0 0.00 0.00 0.00 98 1017.9
20191209030805 34 186 4.0 6.0 0.00 0.00 0.00 98 1017.9
20191209030705 34 187 3.0 6.0 0.00 0.00 0.00 98 1017.9
20191209030604 34 182 3.0 7.0 0.00 0.00 0.00 98 1017.9
20191209030504 34 180 3.0 7.0 0.00 0.00 0.00 98 1017.9
20191209030404 34 182 4.0 7.0 0.00 0.00 0.00 98 1017.9
20191209030305 34 181 4.0 7.0 0.00 0.00 0.00 98 1017.9
20191209030205 34 184 5.0 7.0 0.00 0.00 0.00 98 1016.9
20191209030105 34 184 3.0 7.0 0.00 0.00 0.00 98 1016.9
20191209030004 34 183 2.0 7.0 0.00 0.00 0.00 98 1016.9
20191209025904 34 181 3.0 7.0 0.00 0.00 0.00 98 1016.9
20191209025805 34 182 3.0 7.0 0.00 0.00 0.00 98 1016.9
20191209025705 34 181 6.0 7.0 0.00 0.00 0.00 98 1016.9
20191209025605 34 184 4.0 7.0 0.00 0.00 0.00 98 1016.9
20191209025506 34 185 3.0 7.0 0.00 0.00 0.00 98 1016.9
20191209025404 34 177 3.0 7.0 0.00 0.00 0.00 98 1016.9
20191209025304 34 171 4.0 7.0 0.00 0.00 0.00 98 1016.9
20191209025204 34 171 4.0 7.0 0.00 0.00 0.00 98 1016.9
20191209025105 34 171 4.0 7.0 0.00 0.00 0.00 98 1016.9
20191209025006 34 171 2.0 6.0 0.00 0.00 0.00 98 1016.9
20191209024905 34 171 2.0 6.0 0.00 0.00 0.00 98 1016.9
20191209024805 34 163 1.0 6.0 0.00 0.00 0.00 98 1016.9
20191209024704 34 163 2.0 6.0 0.00 0.00 0.00 98 1017.9
20191209024605 34 165 4.0 6.0 0.00 0.00 0.00 98 1017.9
20191209024505 34 165 5.0 6.0 0.00 0.00 0.00 98 1017.9
20191209024405 34 170 3.0 6.0 0.00 0.00 0.00 98 1017.9
20191209024304 34 171 2.0 6.0 0.00 0.00 0.00 98 1017.9
20191209024204 34 169 1.0 6.0 0.00 0.00 0.00 98 1017.9
20191209024104 34 169 4.0 6.0 0.00 0.00 0.00 98 1017.9
20191209024005 34 169 4.0 6.0 0.00 0.00 0.00 98 1017.9
20191209023905 34 169 6.0 6.0 0.00 0.00 0.00 98 1017.9
20191209023805 34 173 5.0 6.0 0.00 0.00 0.00 98 1017.9